Wetterdaten: Mittwoch, 27.01.2016
Datum Zeit Temp. Aussen Temp. o. S. +5cm Feuchte Auss BlattFeu 1 Luftdruck Regen Sonnenschein Regendauer Solar Windben Empfang
27.01.2016 00:00 9,3 C 8,9 C 7,2 C 91 % 15 lf 1017,4 hPa 0,0 l/m 0 min 0 min 0 W/m 41,8 km/h (6 Bft) 93,62 %
27.01.2016 00:02 9,3 C 8,9 C 7,2 C 91 % 15 lf 1017,5 hPa 0,0 l/m 0 min 0 min 0 W/m 23,0 km/h (4 Bft) 10,00 %
27.01.2016 00:06 9,3 C 8,9 C 7,2 C 90 % 15 lf 1017,5 hPa 0,0 l/m 0 min 2 min 0 W/m 37,7 km/h (5 Bft) 90,59 %
27.01.2016 00:08 9,3 C 8,9 C 7,2 C 90 % 15 lf 1017,4 hPa 0,0 l/m 0 min 2 min 0 W/m 33,5 km/h (5 Bft) 94,34 %
27.01.2016 00:10 9,4 C 8,9 C 7,2 C 90 % 15 lf 1017,4 hPa 0,0 l/m 0 min 2 min 0 W/m 37,7 km/h (5 Bft) 95,74 %
27.01.2016 00:12 9,4 C 8,9 C 7,2 C 90 % 15 lf 1017,3 hPa 0,0 l/m 0 min 0 min 0 W/m 35,6 km/h (5 Bft) 93,62 %
27.01.2016 00:14 9,4 C 8,9 C 7,2 C 90 % 15 lf 1017,3 hPa 0,0 l/m 0 min 2 min 0 W/m 27,2 km/h (4 Bft) 91,84 %
27.01.2016 00:16 9,4 C 8,9 C 7,2 C 90 % 14 lf 1017,4 hPa 0,0 l/m 0 min 2 min 0 W/m 27,2 km/h (4 Bft) 91,49 %
27.01.2016 00:18 9,4 C 8,9 C 7,2 C 90 % 14 lf 1017,3 hPa 0,0 l/m 0 min 0 min 0 W/m 31,4 km/h (5 Bft) 97,87 %
27.01.2016 00:20 9,4 C 8,9 C 7,2 C 90 % 11 lf 1017,4 hPa 0,0 l/m 0 min 0 min 0 W/m 41,8 km/h (6 Bft) 95,74 %
27.01.2016 00:22 9,5 C 8,9 C 7,2 C 89 % 9 lf 1017,3 hPa 0,0 l/m 0 min 0 min 0 W/m 31,4 km/h (5 Bft) 97,87 %
27.01.2016 00:24 9,5 C 8,9 C 7,2 C 89 % 4 lf 1017,3 hPa 0,0 l/m 0 min 2 min 0 W/m 35,6 km/h (5 Bft) 97,37 %
27.01.2016 00:26 9,5 C 8,9 C 7,2 C 89 % 3 lf 1017,4 hPa 0,0 l/m 0 min 2 min 0 W/m 41,8 km/h (6 Bft) 95,74 %
27.01.2016 00:28 9,5 C 8,9 C 7,2 C 89 % 1 lf 1017,3 hPa 0,0 l/m 0 min 0 min 0 W/m 37,7 km/h (5 Bft) 97,83 %
27.01.2016 00:30 9,6 C 8,9 C 7,2 C 89 % 1 lf 1017,4 hPa 0,0 l/m 0 min 0 min 0 W/m 39,7 km/h (6 Bft) 97,87 %
27.01.2016 00:32 9,6 C 8,9 C 7,2 C 89 % 3 lf 1017,4 hPa 0,0 l/m 0 min 2 min 0 W/m 29,3 km/h (5 Bft) 97,87 %
27.01.2016 00:34 9,6 C 8,9 C 7,2 C 89 % 3 lf 1017,3 hPa 0,0 l/m 0 min 2 min 0 W/m 23,0 km/h (4 Bft) 91,49 %
27.01.2016 00:36 9,6 C 8,9 C 7,2 C 89 % 3 lf 1017,4 hPa 0,0 l/m 0 min 2 min 0 W/m 41,8 km/h (6 Bft) 100,00 %
27.01.2016 00:38 9,6 C 8,9 C 7,2 C 89 % 2 lf 1017,4 hPa 0,0 l/m 0 min 2 min 0 W/m 25,1 km/h (4 Bft) 100,00 %
27.01.2016 00:40 9,6 C 8,9 C 7,2 C 89 % 2 lf 1017,4 hPa 0,0 l/m 0 min 2 min 0 W/m 37,7 km/h (5 Bft) 100,00 %
27.01.2016 00:42 9,7 C 8,9 C 7,2 C 89 % 1 lf 1017,4 hPa 0,0 l/m 0 min 2 min 0 W/m 27,2 km/h (4 Bft) 100,00 %
27.01.2016 00:44 9,7 C 8,9 C 7,2 C 89 % 2 lf 1017,4 hPa 0,0 l/m 0 min 0 min 0 W/m 27,2 km/h (4 Bft) 97,87 %
27.01.2016 00:46 9,7 C 9,4 C 7,2 C 89 % 0 lf 1017,4 hPa 0,0 l/m 0 min 0 min 0 W/m 56,5 km/h (7 Bft) 100,00 %
27.01.2016 00:48 9,7 C 9,4 C 7,2 C 89 % 0 lf 1017,4 hPa 0,0 l/m 0 min 0 min 0 W/m 31,4 km/h (5 Bft) 100,00 %
27.01.2016 00:50 9,7 C 9,4 C 7,2 C 89 % 1 lf 1017,4 hPa 0,0 l/m 0 min 2 min 0 W/m 37,7 km/h (5 Bft) 95,65 %
27.01.2016 00:52 9,7 C 10,0 C 7,8 C 89 % 2 lf 1017,4 hPa 0,0 l/m 0 min 0 min 0 W/m 31,4 km/h (5 Bft) 97,87 %
27.01.2016 00:54 9,7 C 10,0 C 7,8 C 88 % 0 lf 1017,4 hPa 0,0 l/m 0 min 2 min 0 W/m 31,4 km/h (5 Bft) 97,37 %
27.01.2016 00:56 9,7 C 10,0 C 7,8 C 88 % 1 lf 1017,3 hPa 0,0 l/m 0 min 0 min 0 W/m 35,6 km/h (5 Bft) 97,87 %
27.01.2016 00:58 9,7 C 10,0 C 7,8 C 88 % 1 lf 1017,3 hPa 0,0 l/m 0 min 0 min 0 W/m 33,5 km/h (5 Bft) 100,00 %
27.01.2016 01:00 9,7 C 10,0 C 7,8 C 88 % 0 lf 1017,4 hPa 0,0 l/m 0 min 0 min 0 W/m 39,7 km/h (6 Bft) 97,87 %
27.01.2016 01:02 9,7 C 10,0 C 7,8 C 88 % 0 lf 1017,2 hPa 0,0 l/m 0 min 0 min 0 W/m 33,5 km/h (5 Bft) 100,00 %
27.01.2016 01:04 9,8 C 10,0 C 7,8 C 88 % 0 lf 1017,2 hPa 0,0 l/m 0 min 0 min 0 W/m 41,8 km/h (6 Bft) 97,96 %
27.01.2016 01:06 9,7 C 10,0 C 7,8 C 88 % 0 lf 1017,2 hPa 0,0 l/m 0 min 0 min 0 W/m 46,0 km/h (6 Bft) 100,00 %
27.01.2016 01:08 9,8 C 10,0 C 7,8 C 88 % 0 lf 1017,3 hPa 0,0 l/m 0 min 0 min 0 W/m 29,3 km/h (5 Bft) 100,00 %
27.01.2016 01:10 9,8 C 10,0 C 7,8 C 88 % 0 lf 1017,1 hPa 0,0 l/m 0 min 0 min 0 W/m 31,4 km/h (5 Bft) 100,00 %
27.01.2016 01:12 9,8 C 10,0 C 7,8 C 88 % 0 lf 1017,1 hPa 0,0 l/m 0 min 0 min 0 W/m 35,6 km/h (5 Bft) 95,74 %
27.01.2016 01:14 9,8 C 10,0 C 7,8 C 88 % 0 lf 1017,1 hPa 0,0 l/m 0 min 0 min 0 W/m 27,2 km/h (4 Bft) 97,37 %
27.01.2016 01:16 9,8 C 10,0 C 7,8 C 88 % 0 lf 1017,0 hPa 0,0 l/m 0 min 0 min 0 W/m 31,4 km/h (5 Bft) 97,83 %
27.01.2016 01:18 9,8 C 10,0 C 7,8 C 88 % 0 lf 1017,1 hPa 0,0 l/m 0 min 0 min 0 W/m 43,9 km/h (6 Bft) 97,87 %
27.01.2016 01:20 9,8 C 10,0 C 7,8 C 88 % 0 lf 1017,0 hPa 0,0 l/m 0 min 0 min 0 W/m 39,7 km/h (6 Bft) 91,49 %
27.01.2016 01:22 9,9 C 10,0 C 7,8 C 88 % 0 lf 1017,0 hPa 0,0 l/m 0 min 0 min 0 W/m 35,6 km/h (5 Bft) 97,87 %
27.01.2016 01:24 9,9 C 10,0 C 7,8 C 87 % 0 lf 1017,0 hPa 0,0 l/m 0 min 0 min 0 W/m 35,6 km/h (5 Bft) 91,49 %
27.01.2016 01:26 9,9 C 10,0 C 7,8 C 87 % 0 lf 1016,9 hPa 0,0 l/m 0 min 0 min 0 W/m 29,3 km/h (5 Bft) 95,74 %
27.01.2016 01:28 9,9 C 10,0 C 7,8 C 87 % 0 lf 1016,9 hPa 0,0 l/m 0 min 0 min 0 W/m 31,4 km/h (5 Bft) 95,65 %
27.01.2016 01:30 9,9 C 10,0 C 7,8 C 87 % 0 lf 1017,1 hPa 0,0 l/m 0 min 0 min 0 W/m 35,6 km/h (5 Bft) 95,74 %
27.01.2016 01:32 9,9 C 10,0 C 7,8 C 87 % 0 lf 1017,0 hPa 0,0 l/m 0 min 0 min 0 W/m 25,1 km/h (4 Bft) 95,74 %
27.01.2016 01:34 9,9 C 10,0 C 7,8 C 87 % 0 lf 1017,0 hPa 0,0 l/m 0 min 0 min 0 W/m 31,4 km/h (5 Bft) 93,62 %
27.01.2016 01:36 10,0 C 10,6 C 7,8 C 87 % 0 lf 1016,9 hPa 0,0 l/m 0 min 0 min 0 W/m 41,8 km/h (6 Bft) 94,64 %
27.01.2016 01:38 10,0 C 10,6 C 7,8 C 87 % 0 lf 1016,9 hPa 0,0 l/m 0 min 0 min 0 W/m 39,7 km/h (6 Bft) 95,92 %
27.01.2016 01:40 10,0 C 10,6 C 7,8 C 87 % 0 lf 1016,9 hPa 0,0 l/m 0 min 0 min 0 W/m 25,1 km/h (4 Bft) 93,62 %
27.01.2016 01:42 10,1 C 10,6 C 7,8 C 87 % 0 lf 1016,9 hPa 0,0 l/m 0 min 0 min 0 W/m 43,9 km/h (6 Bft) 94,74 %
27.01.2016 01:44 10,1 C 10,6 C 7,8 C 86 % 0 lf 1016,7 hPa 0,0 l/m 0 min 0 min 0 W/m 33,5 km/h (5 Bft) 95,74 %
27.01.2016 01:46 10,1 C 10,6 C 7,8 C 86 % 0 lf 1016,7 hPa 0,0 l/m 0 min 0 min 0 W/m 31,4 km/h (5 Bft) 96,23 %
27.01.2016 01:48 10,1 C 10,6 C 7,8 C 86 % 0 lf 1016,6 hPa 0,0 l/m 0 min 0 min 0 W/m 33,5 km/h (5 Bft) 95,65 %
27.01.2016 01:50 10,1 C 10,6 C 7,8 C 86 % 0 lf 1016,7 hPa 0,0 l/m 0 min 0 min 0 W/m 29,3 km/h (5 Bft) 95,74 %
27.01.2016 01:52 10,1 C 10,6 C 7,8 C 86 % 0 lf 1016,8 hPa 0,0 l/m 0 min 0 min 0 W/m 43,9 km/h (6 Bft) 91,49 %
27.01.2016 01:54 10,1 C 10,6 C 7,8 C 86 % 0 lf 1016,8 hPa 0,0 l/m 0 min 0 min 0 W/m 52,3 km/h (7 Bft) 94,00 %
27.01.2016 01:56 10,2 C 10,6 C 7,8 C 86 % 0 lf 1016,8 hPa 0,0 l/m 0 min 0 min 0 W/m 27,2 km/h (4 Bft) 95,74 %
27.01.2016 01:58 10,2 C 10,6 C 7,8 C 86 % 0 lf 1016,9 hPa 0,0 l/m 0 min 0 min 0 W/m 29,3 km/h (5 Bft) 100,00 %
27.01.2016 02:00 10,2 C 10,6 C 7,8 C 86 % 0 lf 1016,9 hPa 0,0 l/m 0 min 0 min 0 W/m 33,5 km/h (5 Bft) 97,83 %
27.01.2016 02:02 10,2 C 10,6 C 7,8 C 86 % 0 lf 1016,8 hPa 0,0 l/m 0 min 0 min 0 W/m 29,3 km/h (5 Bft) 97,37 %
27.01.2016 02:04 10,2 C 10,6 C 7,8 C 86 % 0 lf 1016,9 hPa 0,0 l/m 0 min 0 min 0 W/m 29,3 km/h (5 Bft) 97,87 %
27.01.2016 02:06 10,2 C 10,6 C 7,8 C 86 % 0 lf 1016,9 hPa 0,0 l/m 0 min 0 min 0 W/m 37,7 km/h (5 Bft) 100,00 %
27.01.2016 02:08 10,2 C 10,6 C 7,8 C 85 % 0 lf 1016,8 hPa 0,0 l/m 0 min 0 min 0 W/m 46,0 km/h (6 Bft) 100,00 %
27.01.2016 02:10 10,3 C 10,6 C 7,8 C 85 % 0 lf 1016,9 hPa 0,0 l/m 0 min 0 min 0 W/m 46,0 km/h (6 Bft) 97,87 %
27.01.2016 02:12 10,3 C 10,6 C 7,8 C 85 % 0 lf 1016,9 hPa 0,0 l/m 0 min 0 min 0 W/m 41,8 km/h (6 Bft) 97,83 %
27.01.2016 02:14 10,3 C 10,6 C 7,8 C 85 % 0 lf 1016,9 hPa 0,0 l/m 0 min 0 min 0 W/m 25,1 km/h (4 Bft) 100,00 %
27.01.2016 02:16 10,3 C 10,6 C 7,8 C 85 % 0 lf 1016,9 hPa 0,0 l/m 0 min 0 min 0 W/m 33,5 km/h (5 Bft) 97,87 %
27.01.2016 02:18 10,3 C 10,6 C 7,8 C 85 % 0 lf 1016,9 hPa 0,0 l/m 0 min 0 min 0 W/m 37,7 km/h (5 Bft) 97,87 %
27.01.2016 02:20 10,3 C 10,6 C 7,8 C 85 % 0 lf 1016,9 hPa 0,0 l/m 0 min 0 min 0 W/m 41,8 km/h (6 Bft) 97,87 %
27.01.2016 02:22 10,3 C 10,6 C 7,8 C 85 % 0 lf 1017,0 hPa 0,0 l/m 0 min 0 min 0 W/m 29,3 km/h (5 Bft) 93,62 %
27.01.2016 02:24 10,3 C 10,6 C 7,8 C 85 % 0 lf 1017,0 hPa 0,0 l/m 0 min 0 min 0 W/m 31,4 km/h (5 Bft) 93,48 %
27.01.2016 02:26 10,3 C 10,6 C 7,8 C 85 % 0 lf 1016,9 hPa 0,0 l/m 0 min 0 min 0 W/m 33,5 km/h (5 Bft) 93,62 %
27.01.2016 02:28 10,3 C 10,6 C 7,8 C 85 % 0 lf 1017,0 hPa 0,0 l/m 0 min 0 min 0 W/m 27,2 km/h (4 Bft) 97,87 %
27.01.2016 02:30 10,3 C 10,6 C 7,8 C 85 % 0 lf 1016,9 hPa 0,0 l/m 0 min 0 min 0 W/m 35,6 km/h (5 Bft) 97,87 %
27.01.2016 02:32 10,4 C 10,6 C 8,3 C 85 % 0 lf 1016,9 hPa 0,0 l/m 0 min 0 min 0 W/m 50,2 km/h (7 Bft) 100,00 %
27.01.2016 02:34 10,4 C 10,6 C 8,3 C 85 % 0 lf 1016,8 hPa 0,0 l/m 0 min 0 min 0 W/m 33,5 km/h (5 Bft) 91,49 %
27.01.2016 02:36 10,4 C 10,6 C 8,3 C 85 % 0 lf 1016,7 hPa 0,0 l/m 0 min 0 min 0 W/m 29,3 km/h (5 Bft) 97,37 %
27.01.2016 02:38 10,4 C 10,6 C 8,3 C 85 % 0 lf 1016,8 hPa 0,0 l/m 0 min 0 min 0 W/m 43,9 km/h (6 Bft) 95,65 %
27.01.2016 02:40 10,4 C 10,6 C 8,3 C 85 % 0 lf 1017,0 hPa 0,0 l/m 0 min 0 min 0 W/m 43,9 km/h (6 Bft) 95,74 %
27.01.2016 02:42 10,4 C 10,6 C 8,3 C 85 % 0 lf 1016,7 hPa 0,0 l/m 0 min 0 min 0 W/m 25,1 km/h (4 Bft) 97,87 %
27.01.2016 02:44 10,4 C 10,6 C 8,3 C 85 % 0 lf 1016,7 hPa 0,0 l/m 0 min 0 min 0 W/m 31,4 km/h (5 Bft) 95,74 %
27.01.2016 02:46 10,4 C 10,6 C 8,3 C 85 % 0 lf 1016,7 hPa 0,0 l/m 0 min 0 min 0 W/m 39,7 km/h (6 Bft) 96,43 %
27.01.2016 02:48 10,4 C 10,6 C 8,3 C 84 % 0 lf 1016,9 hPa 0,0 l/m 0 min 0 min 0 W/m 29,3 km/h (5 Bft) 95,65 %
27.01.2016 02:50 10,4 C 10,6 C 8,3 C 84 % 0 lf 1016,9 hPa 0,0 l/m 0 min 0 min 0 W/m 29,3 km/h (5 Bft) 91,49 %
27.01.2016 02:52 10,4 C 10,6 C 8,3 C 84 % 0 lf 1016,8 hPa 0,0 l/m 0 min 0 min 0 W/m 29,3 km/h (5 Bft) 93,62 %
27.01.2016 02:54 10,4 C 10,6 C 8,3 C 84 % 0 lf 1016,7 hPa 0,0 l/m 0 min 0 min 0 W/m 43,9 km/h (6 Bft) 95,74 %
27.01.2016 02:56 10,4 C 10,6 C 8,3 C 84 % 0 lf 1016,7 hPa 0,0 l/m 0 min 0 min 0 W/m 31,4 km/h (5 Bft) 95,74 %
27.01.2016 02:58 10,5 C 10,6 C 8,9 C 84 % 0 lf 1016,9 hPa 0,0 l/m 0 min 0 min 0 W/m 33,5 km/h (5 Bft) 97,37 %
27.01.2016 03:00 10,4 C 10,6 C 8,9 C 84 % 0 lf 1016,8 hPa 0,0 l/m 0 min 0 min 0 W/m 29,3 km/h (5 Bft) 95,65 %
27.01.2016 03:02 10,4 C 10,6 C 8,9 C 84 % 0 lf 1016,7 hPa 0,0 l/m 0 min 0 min 0 W/m 37,7 km/h (5 Bft) 95,74 %
27.01.2016 03:04 10,5 C 10,6 C 8,9 C 84 % 0 lf 1016,8 hPa 0,0 l/m 0 min 0 min 0 W/m 39,7 km/h (6 Bft) 91,49 %
27.01.2016 03:06 10,5 C 10,6 C 8,9 C 84 % 0 lf 1016,8 hPa 0,0 l/m 0 min 0 min 0 W/m 23,0 km/h (4 Bft) 94,64 %
27.01.2016 03:08 10,5 C 10,6 C 8,9 C 84 % 0 lf 1016,7 hPa 0,0 l/m 0 min 0 min 0 W/m 27,2 km/h (4 Bft) 96,00 %
27.01.2016 03:10 10,5 C 10,6 C 8,9 C 84 % 0 lf 1016,7 hPa 0,0 l/m 0 min 0 min 0 W/m 29,3 km/h (5 Bft) 95,65 %
27.01.2016 03:12 10,5 C 10,6 C 8,9 C 84 % 0 lf 1016,7 hPa 0,0 l/m 0 min 0 min 0 W/m 29,3 km/h (5 Bft) 94,74 %
27.01.2016 03:14 10,5 C 10,6 C 8,9 C 84 % 0 lf 1016,7 hPa 0,0 l/m 0 min 0 min 0 W/m 31,4 km/h (5 Bft) 94,00 %
27.01.2016 03:16 10,5 C 10,6 C 8,9 C 84 % 0 lf 1016,6 hPa 0,0 l/m 0 min 0 min 0 W/m 43,9 km/h (6 Bft) 96,23 %
27.01.2016 03:18 10,5 C 10,6 C 8,9 C 84 % 0 lf 1016,8 hPa 0,0 l/m 0 min 0 min 0 W/m 35,6 km/h (5 Bft) 95,74 %
27.01.2016 03:20 10,5 C 10,6 C 8,9 C 84 % 0 lf 1016,7 hPa 0,0 l/m 0 min 0 min 0 W/m 27,2 km/h (4 Bft) 91,49 %
27.01.2016 03:22 10,5 C 10,6 C 8,9 C 84 % 0 lf 1016,7 hPa 0,0 l/m 0 min 0 min 0 W/m 25,1 km/h (4 Bft) 93,48 %
27.01.2016 03:24 10,5 C 10,6 C 8,9 C 84 % 0 lf 1016,6 hPa 0,0 l/m 0 min 0 min 0 W/m 25,1 km/h (4 Bft) 94,74 %
27.01.2016 03:26 10,5 C 10,6 C 8,9 C 84 % 0 lf 1016,7 hPa 0,0 l/m 0 min 0 min 0 W/m 27,2 km/h (4 Bft) 93,62 %
27.01.2016 03:28 10,5 C 10,6 C 8,9 C 84 % 0 lf 1016,7 hPa 0,0 l/m 0 min 0 min 0 W/m 20,9 km/h (4 Bft) 91,49 %
27.01.2016 03:30 10,5 C 10,6 C 8,9 C 84 % 0 lf 1016,7 hPa 0,0 l/m 0 min 0 min 0 W/m 33,5 km/h (5 Bft) 91,49 %
27.01.2016 03:32 10,5 C 10,6 C 8,9 C 84 % 0 lf 1016,7 hPa 0,0 l/m 0 min 0 min 0 W/m 20,9 km/h (4 Bft) 93,75 %
27.01.2016 03:34 10,5 C 10,6 C 8,9 C 84 % 0 lf 1016,8 hPa 0,0 l/m 0 min 0 min 0 W/m 25,1 km/h (4 Bft) 93,75 %
27.01.2016 03:36 10,5 C 10,6 C 8,9 C 84 % 0 lf 1016,8 hPa 0,0 l/m 0 min 0 min 0 W/m 35,6 km/h (5 Bft) 95,74 %
27.01.2016 03:38 10,5 C 10,6 C 8,9 C 84 % 0 lf 1016,7 hPa 0,0 l/m 0 min 0 min 0 W/m 31,4 km/h (5 Bft) 95,24 %
27.01.2016 03:40 10,5 C 10,6 C 8,9 C 84 % 0 lf 1016,7 hPa 0,0 l/m 0 min 0 min 0 W/m 18,8 km/h (3 Bft) 90,38 %
27.01.2016 03:42 10,5 C 10,6 C 8,9 C 84 % 0 lf 1016,8 hPa 0,0 l/m 0 min 0 min 0 W/m 27,2 km/h (4 Bft) 91,49 %
27.01.2016 03:44 10,5 C 10,6 C 8,9 C 84 % 0 lf 1016,8 hPa 0,0 l/m 0 min 0 min 0 W/m 37,7 km/h (5 Bft) 97,87 %
27.01.2016 03:46 10,5 C 10,6 C 8,9 C 84 % 0 lf 1016,7 hPa 0,0 l/m 0 min 0 min 0 W/m 27,2 km/h (4 Bft) 97,83 %
27.01.2016 03:48 10,5 C 10,6 C 8,9 C 84 % 0 lf 1016,9 hPa 0,0 l/m 0 min 0 min 0 W/m 46,0 km/h (6 Bft) 93,62 %
27.01.2016 03:50 10,5 C 10,6 C 8,9 C 84 % 0 lf 1016,7 hPa 0,0 l/m 0 min 0 min 0 W/m 23,0 km/h (4 Bft) 93,62 %
27.01.2016 03:52 10,5 C 10,6 C 8,9 C 84 % 0 lf 1016,6 hPa 0,0 l/m 0 min 0 min 0 W/m 29,3 km/h (5 Bft) 95,74 %
27.01.2016 03:54 10,5 C 10,6 C 8,9 C 84 % 0 lf 1016,6 hPa 0,0 l/m 0 min 0 min 0 W/m 25,1 km/h (4 Bft) 95,74 %
27.01.2016 03:56 10,5 C 10,6 C 8,9 C 84 % 0 lf 1016,6 hPa 0,0 l/m 0 min 0 min 0 W/m 23,0 km/h (4 Bft) 97,87 %
27.01.2016 03:58 10,5 C 10,6 C 8,9 C 84 % 0 lf 1016,5 hPa 0,0 l/m 0 min 0 min 0 W/m 39,7 km/h (6 Bft) 95,65 %
27.01.2016 04:00 10,5 C 10,6 C 8,9 C 84 % 0 lf 1016,5 hPa 0,0 l/m 0 min 0 min 0 W/m 20,9 km/h (4 Bft) 95,74 %
27.01.2016 04:02 10,4 C 10,6 C 8,9 C 84 % 0 lf 1016,5 hPa 0,0 l/m 0 min 0 min 0 W/m 18,8 km/h (3 Bft) 100,00 %
27.01.2016 04:04 10,4 C 10,6 C 8,9 C 84 % 0 lf 1016,5 hPa 0,0 l/m 0 min 0 min 0 W/m 20,9 km/h (4 Bft) 94,29 %
27.01.2016 04:06 10,4 C 10,6 C 8,9 C 84 % 0 lf 1016,5 hPa 0,0 l/m 0 min 0 min 0 W/m 37,7 km/h (5 Bft) 97,87 %
27.01.2016 04:08 10,4 C 10,6 C 8,9 C 84 % 0 lf 1016,5 hPa 0,0 l/m 0 min 0 min 0 W/m 29,3 km/h (5 Bft) 97,87 %
27.01.2016 04:10 10,4 C 10,6 C 8,9 C 85 % 0 lf 1016,4 hPa 0,0 l/m 0 min 0 min 0 W/m 29,3 km/h (5 Bft) 96,30 %
27.01.2016 04:12 10,4 C 10,6 C 8,9 C 85 % 1 lf 1016,4 hPa 0,0 l/m 0 min 0 min 0 W/m 27,2 km/h (4 Bft) 95,74 %
27.01.2016 04:14 10,4 C 10,6 C 8,9 C 85 % 0 lf 1016,5 hPa 0,0 l/m 0 min 0 min 0 W/m 31,4 km/h (5 Bft) 95,74 %
27.01.2016 04:16 10,4 C 10,6 C 8,9 C 85 % 1 lf 1016,3 hPa 0,0 l/m 0 min 0 min 0 W/m 27,2 km/h (4 Bft) 91,49 %
27.01.2016 04:18 10,4 C 10,6 C 8,9 C 85 % 1 lf 1016,4 hPa 0,0 l/m 0 min 0 min 0 W/m 33,5 km/h (5 Bft) 97,87 %
27.01.2016 04:20 10,4 C 10,6 C 8,9 C 85 % 0 lf 1016,4 hPa 0,0 l/m 0 min 0 min 0 W/m 33,5 km/h (5 Bft) 97,96 %
27.01.2016 04:22 10,4 C 10,6 C 8,9 C 85 % 0 lf 1016,4 hPa 0,0 l/m 0 min 0 min 0 W/m 23,0 km/h (4 Bft) 95,74 %
27.01.2016 04:24 10,5 C 10,6 C 8,9 C 85 % 0 lf 1016,4 hPa 0,0 l/m 0 min 0 min 0 W/m 25,1 km/h (4 Bft) 95,83 %
27.01.2016 04:26 10,5 C 10,6 C 8,9 C 85 % 0 lf 1016,2 hPa 0,0 l/m 0 min 0 min 0 W/m 20,9 km/h (4 Bft) 97,87 %
27.01.2016 04:28 10,4 C 10,6 C 8,9 C 85 % 0 lf 1016,1 hPa 0,0 l/m 0 min 0 min 0 W/m 27,2 km/h (4 Bft) 91,43 %
27.01.2016 04:30 10,5 C 10,6 C 8,9 C 85 % 1 lf 1016,1 hPa 0,0 l/m 0 min 2 min 0 W/m 29,3 km/h (5 Bft) 98,18 %
27.01.2016 04:32 10,4 C 10,6 C 8,9 C 85 % 0 lf 1016,1 hPa 0,0 l/m 0 min 0 min 0 W/m 27,2 km/h (4 Bft) 97,87 %
27.01.2016 04:34 10,4 C 10,6 C 8,9 C 85 % 0 lf 1016,2 hPa 0,0 l/m 0 min 0 min 0 W/m 33,5 km/h (5 Bft) 97,83 %
27.01.2016 04:36 10,5 C 10,6 C 8,9 C 85 % 0 lf 1016,1 hPa 0,0 l/m 0 min 0 min 0 W/m 39,7 km/h (6 Bft) 96,00 %
27.01.2016 04:38 10,5 C 10,6 C 8,9 C 85 % 1 lf 1016,1 hPa 0,0 l/m 0 min 0 min 0 W/m 31,4 km/h (5 Bft) 91,49 %
27.01.2016 04:40 10,5 C 10,6 C 8,9 C 85 % 1 lf 1016,1 hPa 0,0 l/m 0 min 0 min 0 W/m 37,7 km/h (5 Bft) 97,87 %
27.01.2016 04:42 10,5 C 10,6 C 8,9 C 85 % 0 lf 1016,1 hPa 0,0 l/m 0 min 0 min 0 W/m 27,2 km/h (4 Bft) 97,92 %
27.01.2016 04:44 10,5 C 10,6 C 8,9 C 85 % 0 lf 1016,0 hPa 0,0 l/m 0 min 0 min 0 W/m 25,1 km/h (4 Bft) 97,83 %
27.01.2016 04:46 10,5 C 10,6 C 8,9 C 85 % 1 lf 1015,9 hPa 0,0 l/m 0 min 2 min 0 W/m 29,3 km/h (5 Bft) 97,22 %
27.01.2016 04:48 10,5 C 10,6 C 8,9 C 85 % 0 lf 1015,9 hPa 0,0 l/m 0 min 0 min 0 W/m 27,2 km/h (4 Bft) 100,00 %
27.01.2016 04:50 10,5 C 10,6 C 8,9 C 85 % 0 lf 1015,9 hPa 0,0 l/m 0 min 0 min 0 W/m 25,1 km/h (4 Bft) 97,87 %
27.01.2016 04:52 10,5 C 10,6 C 8,9 C 85 % 0 lf 1016,0 hPa 0,0 l/m 0 min 0 min 0 W/m 31,4 km/h (5 Bft) 97,87 %
27.01.2016 04:54 10,5 C 10,6 C 8,9 C 85 % 0 lf 1016,0 hPa 0,0 l/m 0 min 0 min 0 W/m 33,5 km/h (5 Bft) 100,00 %
27.01.2016 04:56 10,5 C 10,6 C 8,9 C 85 % 0 lf 1016,0 hPa 0,0 l/m 0 min 0 min 0 W/m 33,5 km/h (5 Bft) 93,48 %
27.01.2016 04:58 10,5 C 10,6 C 8,9 C 85 % 0 lf 1016,0 hPa 0,0 l/m 0 min 0 min 0 W/m 29,3 km/h (5 Bft) 97,87 %
27.01.2016 05:00 10,5 C 10,6 C 8,9 C 85 % 0 lf 1015,9 hPa 0,0 l/m 0 min 0 min 0 W/m 35,6 km/h (5 Bft) 100,00 %
27.01.2016 05:02 10,5 C 10,6 C 8,9 C 85 % 0 lf 1015,9 hPa 0,0 l/m 0 min 0 min 0 W/m 25,1 km/h (4 Bft) 97,87 %
27.01.2016 05:04 10,5 C 10,6 C 8,9 C 85 % 0 lf 1015,8 hPa 0,0 l/m 0 min 0 min 0 W/m 37,7 km/h (5 Bft) 100,00 %
27.01.2016 05:06 10,5 C 10,6 C 8,9 C 85 % 0 lf 1015,9 hPa 0,0 l/m 0 min 0 min 0 W/m 31,4 km/h (5 Bft) 98,00 %
27.01.2016 05:08 10,6 C 10,6 C 8,9 C 85 % 0 lf 1015,8 hPa 0,0 l/m 0 min 0 min 0 W/m 20,9 km/h (4 Bft) 100,00 %
27.01.2016 05:10 10,6 C 10,6 C 8,9 C 85 % 0 lf 1015,8 hPa 0,0 l/m 0 min 0 min 0 W/m 37,7 km/h (5 Bft) 95,74 %
27.01.2016 05:12 10,6 C 10,6 C 8,9 C 85 % 0 lf 1015,7 hPa 0,0 l/m 0 min 0 min 0 W/m 31,4 km/h (5 Bft) 97,14 %
27.01.2016 05:14 10,6 C 10,6 C 8,9 C 85 % 0 lf 1015,7 hPa 0,0 l/m 0 min 0 min 0 W/m 23,0 km/h (4 Bft) 96,23 %
27.01.2016 05:16 10,6 C 10,6 C 8,9 C 85 % 0 lf 1015,8 hPa 0,0 l/m 0 min 0 min 0 W/m 41,8 km/h (6 Bft) 95,12 %
27.01.2016 05:18 10,6 C 10,6 C 8,9 C 86 % 0 lf 1015,6 hPa 0,0 l/m 0 min 0 min 0 W/m 31,4 km/h (5 Bft) 95,74 %
27.01.2016 05:20 10,6 C 10,6 C 8,9 C 86 % 0 lf 1015,6 hPa 0,0 l/m 0 min 0 min 0 W/m 31,4 km/h (5 Bft) 94,23 %
27.01.2016 05:22 10,6 C 10,6 C 8,9 C 86 % 0 lf 1015,6 hPa 0,0 l/m 0 min 0 min 0 W/m 23,0 km/h (4 Bft) 93,62 %
27.01.2016 05:24 10,5 C 10,6 C 8,9 C 86 % 0 lf 1015,5 hPa 0,0 l/m 0 min 0 min 0 W/m 37,7 km/h (5 Bft) 98,00 %
27.01.2016 05:26 10,6 C 10,6 C 8,9 C 86 % 0 lf 1015,5 hPa 0,0 l/m 0 min 0 min 0 W/m 20,9 km/h (4 Bft) 95,74 %
27.01.2016 05:28 10,5 C 10,6 C 8,9 C 86 % 0 lf 1015,6 hPa 0,0 l/m 0 min 0 min 0 W/m 33,5 km/h (5 Bft) 97,87 %
27.01.2016 05:30 10,5 C 10,6 C 8,9 C 86 % 0 lf 1015,6 hPa 0,0 l/m 0 min 0 min 0 W/m 25,1 km/h (4 Bft) 97,87 %
27.01.2016 05:32 10,5 C 10,6 C 8,9 C 86 % 0 lf 1015,5 hPa 0,0 l/m 0 min 0 min 0 W/m 29,3 km/h (5 Bft) 97,87 %
27.01.2016 05:34 10,5 C 10,6 C 8,9 C 86 % 0 lf 1015,4 hPa 0,0 l/m 0 min 0 min 0 W/m 27,2 km/h (4 Bft) 95,74 %
27.01.2016 05:36 10,5 C 10,6 C 8,9 C 86 % 0 lf 1015,4 hPa 0,0 l/m 0 min 0 min 0 W/m 23,0 km/h (4 Bft) 97,96 %
27.01.2016 05:38 10,5 C 10,6 C 8,9 C 86 % 0 lf 1015,4 hPa 0,0 l/m 0 min 0 min 0 W/m 37,7 km/h (5 Bft) 93,62 %
27.01.2016 05:40 10,5 C 10,6 C 8,9 C 86 % 0 lf 1015,4 hPa 0,0 l/m 0 min 0 min 0 W/m 27,2 km/h (4 Bft) 97,87 %
27.01.2016 05:42 10,5 C 10,6 C 8,9 C 86 % 0 lf 1015,5 hPa 0,0 l/m 0 min 0 min 0 W/m 31,4 km/h (5 Bft) 97,87 %
27.01.2016 05:44 10,5 C 10,6 C 8,9 C 86 % 0 lf 1015,5 hPa 0,0 l/m 0 min 0 min 0 W/m 35,6 km/h (5 Bft) 95,65 %
27.01.2016 05:46 10,5 C 10,6 C 8,9 C 86 % 0 lf 1015,4 hPa 0,0 l/m 0 min 0 min 0 W/m 33,5 km/h (5 Bft) 97,87 %
27.01.2016 05:48 10,5 C 10,6 C 8,9 C 86 % 0 lf 1015,5 hPa 0,0 l/m 0 min 0 min 0 W/m 46,0 km/h (6 Bft) 97,87 %
27.01.2016 05:50 10,5 C 10,6 C 8,9 C 86 % 0 lf 1015,3 hPa 0,0 l/m 0 min 0 min 0 W/m 35,6 km/h (5 Bft) 95,74 %
27.01.2016 05:52 10,6 C 10,6 C 8,9 C 86 % 0 lf 1015,3 hPa 0,0 l/m 0 min 0 min 0 W/m 31,4 km/h (5 Bft) 97,14 %
27.01.2016 05:54 10,5 C 10,6 C 8,9 C 86 % 0 lf 1015,4 hPa 0,0 l/m 0 min 0 min 0 W/m 52,3 km/h (7 Bft) 96,55 %
27.01.2016 05:56 10,6 C 10,6 C 8,9 C 86 % 0 lf 1015,4 hPa 0,0 l/m 0 min 0 min 0 W/m 31,4 km/h (5 Bft) 95,74 %
27.01.2016 05:58 10,6 C 10,6 C 8,9 C 85 % 0 lf 1015,4 hPa 0,0 l/m 0 min 0 min 0 W/m 35,6 km/h (5 Bft) 97,87 %
27.01.2016 06:00 10,6 C 10,6 C 8,9 C 85 % 0 lf 1015,5 hPa 0,0 l/m 0 min 0 min 0 W/m 37,7 km/h (5 Bft) 100,00 %
27.01.2016 06:02 10,6 C 11,1 C 9,4 C 85 % 0 lf 1015,6 hPa 0,0 l/m 0 min 0 min 0 W/m 41,8 km/h (6 Bft) 97,87 %
27.01.2016 06:04 10,6 C 10,6 C 8,9 C 86 % 0 lf 1015,6 hPa 0,0 l/m 0 min 0 min 0 W/m 25,1 km/h (4 Bft) 97,14 %
27.01.2016 06:06 10,6 C 10,6 C 8,9 C 85 % 0 lf 1015,5 hPa 0,0 l/m 0 min 0 min 0 W/m 27,2 km/h (4 Bft) 95,74 %
27.01.2016 06:08 10,6 C 10,6 C 8,9 C 85 % 0 lf 1015,5 hPa 0,0 l/m 0 min 0 min 0 W/m 27,2 km/h (4 Bft) 97,87 %
27.01.2016 06:10 10,6 C 10,6 C 8,9 C 85 % 0 lf 1015,6 hPa 0,0 l/m 0 min 0 min 0 W/m 43,9 km/h (6 Bft) 95,65 %
27.01.2016 06:12 10,6 C 10,6 C 8,9 C 85 % 0 lf 1015,4 hPa 0,0 l/m 0 min 0 min 0 W/m 39,7 km/h (6 Bft) 97,87 %
27.01.2016 06:14 10,6 C 11,1 C 8,9 C 85 % 0 lf 1015,4 hPa 0,0 l/m 0 min 0 min 0 W/m 52,3 km/h (7 Bft) 96,36 %
27.01.2016 06:16 10,6 C 11,1 C 9,4 C 85 % 0 lf 1015,6 hPa 0,0 l/m 0 min 0 min 0 W/m 41,8 km/h (6 Bft) 98,00 %
27.01.2016 06:18 10,7 C 11,1 C 9,4 C 85 % 0 lf 1015,4 hPa 0,0 l/m 0 min 0 min 0 W/m 50,2 km/h (7 Bft) 93,62 %
27.01.2016 06:20 10,7 C 11,1 C 9,4 C 85 % 0 lf 1015,5 hPa 0,0 l/m 0 min 0 min 0 W/m 31,4 km/h (5 Bft) 95,74 %
27.01.2016 06:22 10,7 C 11,1 C 8,9 C 85 % 0 lf 1015,4 hPa 0,0 l/m 0 min 0 min 0 W/m 37,7 km/h (5 Bft) 94,29 %
27.01.2016 06:24 10,7 C 11,1 C 8,9 C 85 % 0 lf 1015,5 hPa 0,0 l/m 0 min 0 min 0 W/m 41,8 km/h (6 Bft) 96,36 %
27.01.2016 06:26 10,7 C 11,1 C 8,9 C 85 % 0 lf 1015,5 hPa 0,0 l/m 0 min 0 min 0 W/m 35,6 km/h (5 Bft) 91,49 %
27.01.2016 06:28 10,7 C 10,6 C 8,9 C 84 % 0 lf 1015,5 hPa 0,0 l/m 0 min 0 min 0 W/m 27,2 km/h (4 Bft) 91,49 %
27.01.2016 06:30 10,7 C 10,6 C 8,9 C 84 % 0 lf 1015,4 hPa 0,0 l/m 0 min 0 min 0 W/m 43,9 km/h (6 Bft) 93,88 %
27.01.2016 06:32 10,7 C 10,6 C 8,9 C 84 % 0 lf 1015,4 hPa 0,0 l/m 0 min 0 min 0 W/m 35,6 km/h (5 Bft) 93,62 %
27.01.2016 06:34 10,7 C 10,6 C 8,9 C 84 % 0 lf 1015,6 hPa 0,0 l/m 0 min 0 min 0 W/m 39,7 km/h (6 Bft) 91,67 %
27.01.2016 06:36 10,7 C 10,6 C 8,9 C 84 % 0 lf 1015,6 hPa 0,0 l/m 0 min 0 min 0 W/m 25,1 km/h (4 Bft) 91,43 %
27.01.2016 06:38 10,7 C 10,6 C 8,9 C 84 % 0 lf 1015,7 hPa 0,0 l/m 0 min 0 min 0 W/m 37,7 km/h (5 Bft) 97,87 %
27.01.2016 06:40 10,6 C 10,6 C 8,9 C 85 % 0 lf 1015,7 hPa 0,0 l/m 0 min 0 min 0 W/m 39,7 km/h (6 Bft) 95,74 %
27.01.2016 06:42 10,6 C 10,6 C 8,9 C 85 % 0 lf 1015,7 hPa 0,0 l/m 0 min 0 min 0 W/m 46,0 km/h (6 Bft) 93,62 %
27.01.2016 06:44 10,6 C 10,6 C 8,9 C 85 % 0 lf 1015,7 hPa 0,0 l/m 0 min 0 min 0 W/m 35,6 km/h (5 Bft) 94,44 %
27.01.2016 06:46 10,6 C 10,6 C 8,9 C 85 % 0 lf 1015,7 hPa 0,0 l/m 0 min 0 min 0 W/m 35,6 km/h (5 Bft) 95,74 %
27.01.2016 06:48 10,6 C 10,6 C 8,9 C 85 % 0 lf 1015,6 hPa 0,0 l/m 0 min 0 min 0 W/m 27,2 km/h (4 Bft) 93,62 %
27.01.2016 06:50 10,6 C 10,6 C 8,9 C 85 % 0 lf 1015,6 hPa 0,0 l/m 0 min 0 min 0 W/m 35,6 km/h (5 Bft) 95,74 %
27.01.2016 06:52 10,5 C 10,6 C 8,9 C 85 % 0 lf 1015,7 hPa 0,0 l/m 0 min 0 min 0 W/m 37,7 km/h (5 Bft) 91,49 %
27.01.2016 06:54 10,5 C 10,6 C 8,9 C 85 % 0 lf 1015,6 hPa 0,0 l/m 0 min 0 min 0 W/m 41,8 km/h (6 Bft) 93,48 %
27.01.2016 06:56 10,5 C 10,6 C 8,9 C 85 % 0 lf 1015,7 hPa 0,0 l/m 0 min 0 min 0 W/m 31,4 km/h (5 Bft) 94,00 %
27.01.2016 06:58 10,5 C 10,6 C 8,9 C 85 % 0 lf 1015,6 hPa 0,0 l/m 0 min 0 min 0 W/m 23,0 km/h (4 Bft) 93,62 %
27.01.2016 07:00 10,5 C 10,6 C 8,9 C 85 % 0 lf 1015,6 hPa 0,0 l/m 0 min 0 min 0 W/m 29,3 km/h (5 Bft) 95,74 %
27.01.2016 07:02 10,5 C 10,6 C 8,9 C 85 % 0 lf 1015,6 hPa 0,0 l/m 0 min 0 min 0 W/m 37,7 km/h (5 Bft) 97,22 %
27.01.2016 07:04 10,5 C 10,6 C 8,9 C 85 % 0 lf 1015,6 hPa 0,0 l/m 0 min 0 min 0 W/m 35,6 km/h (5 Bft) 91,49 %
27.01.2016 07:06 10,5 C 10,6 C 8,9 C 85 % 0 lf 1015,7 hPa 0,0 l/m 0 min 0 min 0 W/m 31,4 km/h (5 Bft) 96,30 %
27.01.2016 07:08 10,4 C 10,6 C 8,9 C 85 % 0 lf 1015,7 hPa 0,0 l/m 0 min 0 min 0 W/m 33,5 km/h (5 Bft) 92,00 %
27.01.2016 07:10 10,4 C 10,6 C 8,9 C 85 % 0 lf 1015,7 hPa 0,0 l/m 0 min 0 min 0 W/m 25,1 km/h (4 Bft) 93,62 %
27.01.2016 07:12 10,4 C 10,6 C 8,9 C 85 % 0 lf 1015,7 hPa 0,0 l/m 0 min 0 min 0 W/m 33,5 km/h (5 Bft) 95,74 %
27.01.2016 07:14 10,4 C 10,6 C 8,9 C 85 % 0 lf 1015,7 hPa 0,0 l/m 0 min 0 min 0 W/m 29,3 km/h (5 Bft) 93,75 %
27.01.2016 07:16 10,4 C 10,6 C 8,9 C 85 % 0 lf 1015,7 hPa 0,0 l/m 0 min 0 min 0 W/m 33,5 km/h (5 Bft) 93,48 %
27.01.2016 07:18 10,4 C 10,6 C 8,9 C 85 % 0 lf 1015,8 hPa 0,0 l/m 0 min 0 min 0 W/m 27,2 km/h (4 Bft) 91,49 %
27.01.2016 07:20 10,4 C 10,6 C 8,9 C 85 % 0 lf 1015,7 hPa 0,0 l/m 0 min 0 min 0 W/m 25,1 km/h (4 Bft) 93,62 %
27.01.2016 07:22 10,4 C 10,6 C 8,9 C 85 % 0 lf 1015,6 hPa 0,0 l/m 0 min 0 min 0 W/m 20,9 km/h (4 Bft) 93,62 %
27.01.2016 07:24 10,4 C 10,6 C 8,9 C 85 % 0 lf 1015,6 hPa 0,0 l/m 0 min 0 min 0 W/m 29,3 km/h (5 Bft) 88,57 %
27.01.2016 07:26 10,4 C 10,6 C 8,9 C 85 % 0 lf 1015,5 hPa 0,0 l/m 0 min 0 min 0 W/m 18,8 km/h (3 Bft) 95,74 %
27.01.2016 07:28 10,4 C 10,6 C 8,9 C 85 % 0 lf 1015,4 hPa 0,0 l/m 0 min 0 min 0 W/m 27,2 km/h (4 Bft) 95,74 %
27.01.2016 07:30 10,4 C 10,6 C 8,9 C 85 % 0 lf 1015,6 hPa 0,0 l/m 0 min 0 min 0 W/m 27,2 km/h (4 Bft) 95,74 %
27.01.2016 07:32 10,4 C 10,6 C 8,9 C 85 % 0 lf 1015,6 hPa 0,0 l/m 0 min 0 min 0 W/m 29,3 km/h (5 Bft) 95,65 %
27.01.2016 07:34 10,4 C 10,6 C 8,9 C 85 % 0 lf 1015,6 hPa 0,0 l/m 0 min 0 min 0 W/m 43,9 km/h (6 Bft) 96,36 %
27.01.2016 07:36 10,4 C 10,6 C 8,9 C 85 % 0 lf 1015,4 hPa 0,0 l/m 0 min 0 min 0 W/m 27,2 km/h (4 Bft) 98,00 %
27.01.2016 07:38 10,4 C 10,6 C 8,9 C 85 % 0 lf 1015,5 hPa 0,0 l/m 0 min 0 min 0 W/m 31,4 km/h (5 Bft) 95,74 %
27.01.2016 07:40 10,4 C 10,6 C 8,9 C 85 % 0 lf 1015,4 hPa 0,0 l/m 0 min 0 min 0 W/m 27,2 km/h (4 Bft) 97,83 %
27.01.2016 07:42 10,4 C 10,6 C 8,9 C 85 % 0 lf 1015,4 hPa 0,0 l/m 0 min 0 min 0 W/m 43,9 km/h (6 Bft) 95,74 %
27.01.2016 07:44 10,4 C 10,6 C 8,9 C 85 % 0 lf 1015,4 hPa 0,0 l/m 0 min 0 min 0 W/m 25,1 km/h (4 Bft) 97,92 %
27.01.2016 07:46 10,4 C 10,6 C 8,9 C 85 % 0 lf 1015,1 hPa 0,0 l/m 0 min 0 min 0 W/m 31,4 km/h (5 Bft) 97,87 %
27.01.2016 07:48 10,4 C 10,6 C 8,9 C 85 % 0 lf 1015,1 hPa 0,0 l/m 0 min 0 min 0 W/m 23,0 km/h (4 Bft) 100,00 %
27.01.2016 07:50 10,4 C 10,6 C 8,9 C 85 % 0 lf 1015,0 hPa 0,0 l/m 0 min 0 min 0 W/m 20,9 km/h (4 Bft) 100,00 %
27.01.2016 07:52 10,4 C 10,6 C 8,9 C 85 % 0 lf 1015,1 hPa 0,0 l/m 0 min 0 min 0 W/m 18,8 km/h (3 Bft) 97,83 %
27.01.2016 07:54 10,4 C 10,6 C 8,9 C 85 % 0 lf 1015,1 hPa 0,0 l/m 0 min 0 min 0 W/m 33,5 km/h (5 Bft) 97,14 %
27.01.2016 07:56 10,4 C 10,6 C 8,9 C 84 % 0 lf 1015,3 hPa 0,0 l/m 0 min 0 min 0 W/m 29,3 km/h (5 Bft) 97,87 %
27.01.2016 07:58 10,4 C 10,6 C 8,9 C 84 % 0 lf 1015,2 hPa 0,0 l/m 0 min 0 min 0 W/m 27,2 km/h (4 Bft) 100,00 %
27.01.2016 08:00 10,4 C 10,6 C 8,9 C 84 % 0 lf 1015,2 hPa 0,0 l/m 0 min 0 min 0 W/m 25,1 km/h (4 Bft) 97,87 %
27.01.2016 08:02 10,4 C 10,6 C 8,9 C 84 % 0 lf 1015,3 hPa 0,0 l/m 0 min 0 min 0 W/m 31,4 km/h (5 Bft) 100,00 %
27.01.2016 08:04 10,4 C 10,6 C 8,9 C 84 % 0 lf 1015,2 hPa 0,0 l/m 0 min 0 min 0 W/m 39,7 km/h (6 Bft) 100,00 %
27.01.2016 08:06 10,4 C 10,6 C 8,9 C 84 % 0 lf 1015,1 hPa 0,0 l/m 0 min 0 min 0 W/m 35,6 km/h (5 Bft) 96,00 %
27.01.2016 08:08 10,4 C 10,6 C 8,9 C 84 % 0 lf 1015,0 hPa 0,0 l/m 0 min 0 min 0 W/m 31,4 km/h (5 Bft) 96,00 %
27.01.2016 08:10 10,4 C 10,6 C 8,9 C 84 % 0 lf 1015,1 hPa 0,0 l/m 0 min 0 min 0 W/m 33,5 km/h (5 Bft) 100,00 %
27.01.2016 08:12 10,4 C 10,6 C 8,9 C 84 % 0 lf 1015,1 hPa 0,0 l/m 0 min 0 min 0 W/m 35,6 km/h (5 Bft) 97,87 %
27.01.2016 08:14 10,4 C 10,6 C 8,9 C 84 % 0 lf 1015,0 hPa 0,0 l/m 0 min 0 min 0 W/m 41,8 km/h (6 Bft) 94,55 %
27.01.2016 08:16 10,4 C 10,6 C 8,9 C 84 % 0 lf 1015,1 hPa 0,0 l/m 0 min 0 min 0 W/m 43,9 km/h (6 Bft) 100,00 %
27.01.2016 08:18 10,4 C 10,6 C 8,9 C 84 % 0 lf 1015,1 hPa 0,0 l/m 0 min 0 min 0 W/m 25,1 km/h (4 Bft) 97,87 %
27.01.2016 08:20 10,4 C 10,6 C 8,9 C 84 % 0 lf 1015,1 hPa 0,0 l/m 0 min 0 min 0 W/m 39,7 km/h (6 Bft) 100,00 %
27.01.2016 08:22 10,4 C 10,6 C 8,9 C 84 % 0 lf 1015,1 hPa 0,0 l/m 0 min 0 min 0 W/m 39,7 km/h (6 Bft) 100,00 %
27.01.2016 08:24 10,4 C 10,6 C 8,9 C 84 % 0 lf 1015,0 hPa 0,0 l/m 0 min 0 min 2 W/m 33,5 km/h (5 Bft) 100,00 %
27.01.2016 08:26 10,4 C 10,6 C 8,9 C 84 % 0 lf 1015,1 hPa 0,0 l/m 0 min 0 min 5 W/m 27,2 km/h (4 Bft) 97,87 %
27.01.2016 08:28 10,4 C 10,6 C 8,9 C 84 % 2 lf 1015,0 hPa 0,0 l/m 0 min 0 min 5 W/m 29,3 km/h (5 Bft) 93,48 %
27.01.2016 08:30 10,4 C 10,6 C 8,9 C 84 % 0 lf 1015,0 hPa 0,0 l/m 0 min 0 min 5 W/m 16,7 km/h (3 Bft) 100,00 %
27.01.2016 08:32 10,4 C 10,6 C 8,9 C 84 % 0 lf 1015,1 hPa 0,0 l/m 0 min 0 min 5 W/m 18,8 km/h (3 Bft) 97,87 %
27.01.2016 08:34 10,4 C 10,6 C 8,9 C 84 % 0 lf 1015,1 hPa 0,0 l/m 0 min 0 min 5 W/m 14,6 km/h (3 Bft) 100,00 %
27.01.2016 08:36 10,4 C 10,6 C 8,9 C 84 % 0 lf 1015,1 hPa 0,0 l/m 0 min 0 min 5 W/m 37,7 km/h (5 Bft) 100,00 %
27.01.2016 08:38 10,4 C 10,6 C 8,9 C 84 % 0 lf 1015,1 hPa 0,0 l/m 0 min 0 min 5 W/m 33,5 km/h (5 Bft) 97,87 %
27.01.2016 08:40 10,4 C 10,6 C 8,9 C 84 % 0 lf 1015,1 hPa 0,0 l/m 0 min 0 min 5 W/m 18,8 km/h (3 Bft) 93,48 %
27.01.2016 08:42 10,4 C 10,6 C 8,9 C 84 % 0 lf 1015,2 hPa 0,0 l/m 0 min 0 min 5 W/m 31,4 km/h (5 Bft) 95,74 %
27.01.2016 08:44 10,4 C 10,6 C 8,9 C 84 % 1 lf 1015,1 hPa 0,0 l/m 0 min 0 min 5 W/m 43,9 km/h (6 Bft) 96,00 %
27.01.2016 08:46 10,4 C 10,6 C 8,9 C 84 % 1 lf 1015,1 hPa 0,0 l/m 0 min 0 min 5 W/m 25,1 km/h (4 Bft) 98,11 %
27.01.2016 08:48 10,4 C 10,6 C 8,9 C 84 % 0 lf 1015,1 hPa 0,0 l/m 0 min 0 min 7 W/m 37,7 km/h (5 Bft) 97,83 %
27.01.2016 08:50 10,4 C 10,6 C 8,9 C 84 % 0 lf 1015,1 hPa 0,0 l/m 0 min 0 min 9 W/m 37,7 km/h (5 Bft) 97,87 %
27.01.2016 08:52 10,4 C 10,6 C 8,9 C 84 % 0 lf 1015,1 hPa 0,0 l/m 0 min 0 min 10 W/m 39,7 km/h (6 Bft) 95,74 %
27.01.2016 08:54 10,4 C 10,6 C 8,9 C 84 % 0 lf 1015,2 hPa 0,0 l/m 0 min 0 min 11 W/m 25,1 km/h (4 Bft) 97,87 %
27.01.2016 08:56 10,4 C 10,6 C 8,9 C 84 % 0 lf 1015,1 hPa 0,0 l/m 0 min 2 min 11 W/m 46,0 km/h (6 Bft) 93,62 %
27.01.2016 08:58 10,5 C 10,6 C 8,9 C 84 % 0 lf 1015,2 hPa 0,0 l/m 0 min 0 min 11 W/m 35,6 km/h (5 Bft) 95,74 %
27.01.2016 09:00 10,5 C 10,6 C 8,9 C 84 % 0 lf 1015,3 hPa 0,0 l/m 0 min 0 min 10 W/m 27,2 km/h (4 Bft) 94,74 %
27.01.2016 09:02 10,5 C 10,6 C 8,9 C 84 % 0 lf 1015,4 hPa 0,0 l/m 0 min 0 min 12 W/m 29,3 km/h (5 Bft) 97,87 %
27.01.2016 09:04 10,5 C 10,6 C 8,9 C 84 % 0 lf 1015,3 hPa 0,0 l/m 0 min 0 min 12 W/m 31,4 km/h (5 Bft) 95,92 %
27.01.2016 09:06 10,5 C 10,6 C 8,9 C 84 % 0 lf 1015,3 hPa 0,0 l/m 0 min 0 min 16 W/m 29,3 km/h (5 Bft) 95,74 %
27.01.2016 09:08 10,5 C 10,6 C 8,9 C 84 % 0 lf 1015,3 hPa 0,0 l/m 0 min 0 min 19 W/m 25,1 km/h (4 Bft) 90,48 %
27.01.2016 09:10 10,5 C 11,1 C 8,9 C 84 % 0 lf 1015,5 hPa 0,0 l/m 0 min 0 min 21 W/m 31,4 km/h (5 Bft) 94,23 %
27.01.2016 09:12 10,6 C 11,1 C 9,4 C 83 % 0 lf 1015,4 hPa 0,0 l/m 0 min 0 min 24 W/m 31,4 km/h (5 Bft) 92,45 %
27.01.2016 09:14 10,6 C 10,6 C 9,4 C 83 % 0 lf 1015,4 hPa 0,0 l/m 0 min 0 min 23 W/m 33,5 km/h (5 Bft) 88,89 %
27.01.2016 09:16 10,6 C 11,1 C 9,4 C 83 % 0 lf 1015,4 hPa 0,0 l/m 0 min 0 min 22 W/m 48,1 km/h (6 Bft) 94,12 %
27.01.2016 09:18 10,6 C 11,1 C 9,4 C 83 % 1 lf 1015,4 hPa 0,0 l/m 0 min 2 min 21 W/m 35,6 km/h (5 Bft) 93,62 %
27.01.2016 09:20 10,6 C 10,6 C 8,9 C 84 % 2 lf 1015,3 hPa 0,0 l/m 0 min 2 min 21 W/m 43,9 km/h (6 Bft) 95,74 %
27.01.2016 09:22 10,6 C 10,6 C 8,9 C 84 % 2 lf 1015,3 hPa 0,0 l/m 0 min 0 min 22 W/m 39,7 km/h (6 Bft) 91,49 %
27.01.2016 09:24 10,6 C 10,6 C 8,9 C 84 % 1 lf 1015,4 hPa 0,0 l/m 0 min 2 min 21 W/m 41,8 km/h (6 Bft) 95,74 %
27.01.2016 09:26 10,6 C 10,6 C 8,9 C 84 % 1 lf 1015,4 hPa 0,0 l/m 0 min 0 min 19 W/m 52,3 km/h (7 Bft) 92,86 %
27.01.2016 09:28 10,6 C 10,6 C 8,9 C 84 % 2 lf 1015,5 hPa 0,0 l/m 0 min 2 min 18 W/m 37,7 km/h (5 Bft) 98,04 %
27.01.2016 09:30 10,6 C 10,6 C 8,9 C 85 % 2 lf 1015,5 hPa 0,0 l/m 0 min 2 min 22 W/m 31,4 km/h (5 Bft) 95,74 %
27.01.2016 09:32 10,6 C 10,0 C 8,9 C 85 % 3 lf 1015,4 hPa 0,0 l/m 0 min 2 min 25 W/m 48,1 km/h (6 Bft) 93,62 %
27.01.2016 09:34 10,6 C 9,4 C 8,9 C 85 % 4 lf 1015,4 hPa 0,0 l/m 0 min 2 min 29 W/m 37,7 km/h (5 Bft) 97,62 %
27.01.2016 09:36 10,6 C 9,4 C 8,3 C 85 % 7 lf 1015,6 hPa 0,0 l/m 0 min 2 min 30 W/m 37,7 km/h (5 Bft) 97,96 %
27.01.2016 09:38 10,6 C 9,4 C 8,3 C 86 % 15 lf 1015,4 hPa 0,0 l/m 0 min 2 min 38 W/m 35,6 km/h (5 Bft) 95,92 %
27.01.2016 09:40 10,5 C 9,4 C 8,3 C 86 % 15 lf 1015,5 hPa 0,0 l/m 0 min 2 min 39 W/m 37,7 km/h (5 Bft) 95,74 %
27.01.2016 09:42 10,4 C 9,4 C 8,3 C 87 % 15 lf 1015,5 hPa 0,0 l/m 0 min 2 min 39 W/m 35,6 km/h (5 Bft) 95,74 %
27.01.2016 09:44 10,4 C 9,4 C 8,3 C 87 % 15 lf 1015,5 hPa 0,0 l/m 0 min 2 min 39 W/m 39,7 km/h (6 Bft) 98,11 %
27.01.2016 09:46 10,4 C 9,4 C 7,8 C 87 % 15 lf 1015,5 hPa 0,0 l/m 0 min 2 min 38 W/m 27,2 km/h (4 Bft) 94,74 %
27.01.2016 09:48 10,3 C 9,4 C 7,8 C 88 % 15 lf 1015,4 hPa 0,0 l/m 0 min 2 min 38 W/m 31,4 km/h (5 Bft) 94,00 %
27.01.2016 09:50 10,3 C 9,4 C 7,8 C 88 % 15 lf 1015,4 hPa 0,0 l/m 0 min 2 min 34 W/m 29,3 km/h (5 Bft) 97,83 %
27.01.2016 09:52 10,2 C 9,4 C 7,8 C 88 % 15 lf 1015,5 hPa 0,0 l/m 0 min 2 min 32 W/m 29,3 km/h (5 Bft) 95,74 %
27.01.2016 09:54 10,2 C 9,4 C 7,8 C 88 % 15 lf 1015,4 hPa 0,0 l/m 0 min 2 min 31 W/m 37,7 km/h (5 Bft) 95,74 %
27.01.2016 09:56 10,2 C 9,4 C 7,8 C 88 % 15 lf 1015,4 hPa 0,2 l/m 0 min 2 min 33 W/m 43,9 km/h (6 Bft) 96,23 %
27.01.2016 09:58 10,2 C 9,4 C 7,8 C 89 % 15 lf 1015,4 hPa 0,0 l/m 0 min 2 min 35 W/m 39,7 km/h (6 Bft) 97,56 %
27.01.2016 10:00 10,2 C 9,4 C 7,8 C 89 % 15 lf 1015,5 hPa 0,0 l/m 0 min 2 min 34 W/m 41,8 km/h (6 Bft) 95,74 %
27.01.2016 10:02 10,1 C 9,4 C 7,8 C 89 % 15 lf 1015,4 hPa 0,0 l/m 0 min 2 min 35 W/m 27,2 km/h (4 Bft) 97,67 %
27.01.2016 10:04 10,1 C 9,4 C 7,8 C 89 % 15 lf 1015,5 hPa 0,0 l/m 0 min 2 min 32 W/m 37,7 km/h (5 Bft) 95,74 %
27.01.2016 10:06 10,1 C 9,4 C 7,8 C 89 % 15 lf 1015,4 hPa 0,0 l/m 0 min 2 min 33 W/m 35,6 km/h (5 Bft) 94,00 %
27.01.2016 10:08 10,1 C 9,4 C 7,8 C 89 % 15 lf 1015,4 hPa 0,0 l/m 0 min 2 min 35 W/m 37,7 km/h (5 Bft) 97,87 %
27.01.2016 10:10 10,1 C 9,4 C 7,8 C 90 % 15 lf 1015,3 hPa 0,0 l/m 0 min 2 min 36 W/m 27,2 km/h (4 Bft) 97,87 %
27.01.2016 10:12 10,1 C 9,4 C 7,8 C 90 % 15 lf 1015,3 hPa 0,0 l/m 0 min 2 min 35 W/m 60,7 km/h (7 Bft) 95,65 %
27.01.2016 10:14 10,1 C 9,4 C 7,8 C 90 % 15 lf 1015,3 hPa 0,0 l/m 0 min 2 min 35 W/m 62,8 km/h (8 Bft) 93,62 %
27.01.2016 10:16 10,1 C 9,4 C 7,8 C 90 % 15 lf 1015,4 hPa 0,0 l/m 0 min 2 min 35 W/m 27,2 km/h (4 Bft) 95,45 %
27.01.2016 10:18 10,1 C 9,4 C 7,8 C 90 % 15 lf 1015,2 hPa 0,0 l/m 0 min 2 min 37 W/m 27,2 km/h (4 Bft) 95,74 %
27.01.2016 10:20 10,1 C 9,4 C 7,8 C 90 % 15 lf 1015,3 hPa 0,0 l/m 0 min 2 min 36 W/m 35,6 km/h (5 Bft) 98,00 %
27.01.2016 10:22 10,1 C 9,4 C 7,8 C 90 % 15 lf 1015,2 hPa 0,0 l/m 0 min 2 min 33 W/m 37,7 km/h (5 Bft) 97,87 %
27.01.2016 10:24 10,1 C 9,4 C 7,8 C 90 % 15 lf 1015,3 hPa 0,0 l/m 0 min 2 min 33 W/m 39,7 km/h (6 Bft) 93,48 %
27.01.2016 10:26 10,0 C 9,4 C 7,8 C 91 % 15 lf 1015,2 hPa 0,0 l/m 0 min 2 min 32 W/m 29,3 km/h (5 Bft) 97,87 %
27.01.2016 10:28 10,0 C 9,4 C 7,8 C 91 % 15 lf 1015,5 hPa 0,0 l/m 0 min 2 min 30 W/m 41,8 km/h (6 Bft) 100,00 %
27.01.2016 10:30 10,0 C 9,4 C 7,8 C 91 % 15 lf 1015,4 hPa 0,0 l/m 0 min 2 min 30 W/m 33,5 km/h (5 Bft) 96,00 %
27.01.2016 10:32 10,0 C 9,4 C 7,8 C 91 % 15 lf 1015,5 hPa 0,0 l/m 0 min 2 min 30 W/m 37,7 km/h (5 Bft) 97,87 %
27.01.2016 10:34 10,0 C 9,4 C 7,8 C 91 % 15 lf 1015,4 hPa 0,0 l/m 0 min 2 min 28 W/m 31,4 km/h (5 Bft) 97,87 %
27.01.2016 10:36 10,0 C 9,4 C 7,8 C 91 % 15 lf 1015,5 hPa 0,0 l/m 0 min 2 min 25 W/m 23,0 km/h (4 Bft) 95,65 %
27.01.2016 10:38 10,0 C 9,4 C 7,8 C 91 % 15 lf 1015,5 hPa 0,0 l/m 0 min 2 min 24 W/m 31,4 km/h (5 Bft) 97,73 %
27.01.2016 10:40 10,0 C 8,9 C 7,8 C 91 % 15 lf 1015,4 hPa 0,2 l/m 0 min 2 min 23 W/m 33,5 km/h (5 Bft) 98,00 %
27.01.2016 10:42 10,0 C 8,9 C 7,8 C 91 % 15 lf 1015,3 hPa 0,0 l/m 0 min 2 min 24 W/m 35,6 km/h (5 Bft) 95,74 %
27.01.2016 10:44 10,0 C 8,9 C 7,8 C 91 % 15 lf 1015,4 hPa 0,0 l/m 0 min 2 min 23 W/m 39,7 km/h (6 Bft) 95,74 %
27.01.2016 10:46 10,0 C 8,9 C 7,8 C 91 % 15 lf 1015,3 hPa 0,0 l/m 0 min 2 min 24 W/m 23,0 km/h (4 Bft) 97,87 %
27.01.2016 10:48 9,9 C 8,9 C 7,8 C 91 % 15 lf 1015,4 hPa 0,0 l/m 0 min 2 min 27 W/m 35,6 km/h (5 Bft) 95,24 %
27.01.2016 10:50 9,9 C 8,9 C 7,8 C 91 % 15 lf 1015,2 hPa 0,0 l/m 0 min 2 min 32 W/m 37,7 km/h (5 Bft) 98,00 %
27.01.2016 10:52 9,9 C 8,9 C 7,8 C 91 % 15 lf 1015,2 hPa 0,0 l/m 0 min 2 min 33 W/m 33,5 km/h (5 Bft) 97,87 %
27.01.2016 10:54 9,9 C 9,4 C 7,8 C 91 % 15 lf 1015,3 hPa 0,0 l/m 0 min 2 min 35 W/m 41,8 km/h (6 Bft) 91,49 %
27.01.2016 10:56 9,9 C 9,4 C 7,8 C 91 % 15 lf 1015,1 hPa 0,0 l/m 0 min 2 min 35 W/m 37,7 km/h (5 Bft) 95,83 %
27.01.2016 10:58 9,9 C 9,4 C 7,8 C 91 % 15 lf 1015,2 hPa 0,0 l/m 0 min 2 min 37 W/m 35,6 km/h (5 Bft) 95,74 %
27.01.2016 11:00 9,9 C 9,4 C 7,8 C 91 % 15 lf 1015,2 hPa 0,0 l/m 0 min 2 min 39 W/m 25,1 km/h (4 Bft) 92,86 %
27.01.2016 11:02 9,9 C 9,4 C 7,8 C 91 % 15 lf 1015,2 hPa 0,0 l/m 0 min 2 min 39 W/m 31,4 km/h (5 Bft) 95,83 %
27.01.2016 11:04 9,9 C 9,4 C 7,8 C 91 % 15 lf 1015,2 hPa 0,2 l/m 0 min 2 min 39 W/m 29,3 km/h (5 Bft) 93,62 %
27.01.2016 11:06 9,9 C 9,4 C 7,8 C 91 % 15 lf 1015,3 hPa 0,0 l/m 0 min 2 min 34 W/m 33,5 km/h (5 Bft) 90,00 %
27.01.2016 11:08 9,9 C 9,4 C 7,8 C 91 % 15 lf 1015,5 hPa 0,0 l/m 0 min 2 min 33 W/m 31,4 km/h (5 Bft) 95,74 %
27.01.2016 11:10 9,9 C 9,4 C 7,8 C 91 % 15 lf 1015,4 hPa 0,0 l/m 0 min 2 min 34 W/m 31,4 km/h (5 Bft) 95,65 %
27.01.2016 11:12 9,9 C 9,4 C 7,8 C 91 % 15 lf 1015,5 hPa 0,0 l/m 0 min 2 min 34 W/m 25,1 km/h (4 Bft) 91,49 %
27.01.2016 11:14 9,9 C 9,4 C 7,8 C 91 % 15 lf 1015,6 hPa 0,0 l/m 0 min 2 min 33 W/m 39,7 km/h (6 Bft) 91,49 %
27.01.2016 11:16 9,9 C 9,4 C 7,8 C 91 % 15 lf 1015,6 hPa 0,0 l/m 0 min 2 min 39 W/m 33,5 km/h (5 Bft) 93,18 %
27.01.2016 11:18 10,0 C 9,4 C 7,8 C 91 % 15 lf 1015,6 hPa 0,0 l/m 0 min 2 min 51 W/m 20,9 km/h (4 Bft) 92,00 %
27.01.2016 11:20 10,0 C 9,4 C 7,8 C 91 % 15 lf 1015,7 hPa 0,0 l/m 0 min 2 min 54 W/m 35,6 km/h (5 Bft) 93,62 %
27.01.2016 11:22 10,1 C 9,4 C 7,8 C 91 % 14 lf 1015,5 hPa 0,0 l/m 0 min 2 min 60 W/m 39,7 km/h (6 Bft) 95,65 %
27.01.2016 11:24 10,1 C 10,0 C 8,3 C 91 % 12 lf 1015,6 hPa 0,0 l/m 0 min 0 min 56 W/m 23,0 km/h (4 Bft) 98,11 %
27.01.2016 11:26 10,1 C 10,0 C 8,3 C 91 % 9 lf 1015,6 hPa 0,0 l/m 0 min 2 min 57 W/m 27,2 km/h (4 Bft) 94,74 %
27.01.2016 11:28 10,1 C 10,0 C 8,3 C 91 % 4 lf 1015,6 hPa 0,0 l/m 0 min 0 min 57 W/m 41,8 km/h (6 Bft) 100,00 %
27.01.2016 11:30 10,2 C 10,0 C 8,3 C 91 % 2 lf 1015,6 hPa 0,0 l/m 0 min 2 min 56 W/m 35,6 km/h (5 Bft) 97,87 %
27.01.2016 11:32 10,2 C 10,0 C 8,3 C 91 % 1 lf 1015,5 hPa 0,0 l/m 0 min 2 min 59 W/m 18,8 km/h (3 Bft) 98,08 %
27.01.2016 11:34 10,2 C 10,0 C 8,3 C 91 % 0 lf 1015,4 hPa 0,0 l/m 0 min 2 min 63 W/m 31,4 km/h (5 Bft) 95,74 %
27.01.2016 11:36 10,2 C 10,0 C 8,3 C 90 % 0 lf 1015,4 hPa 0,0 l/m 0 min 0 min 67 W/m 20,9 km/h (4 Bft) 94,74 %
27.01.2016 11:38 10,3 C 10,0 C 8,3 C 90 % 0 lf 1015,4 hPa 0,0 l/m 0 min 0 min 70 W/m 41,8 km/h (6 Bft) 98,00 %
27.01.2016 11:40 10,3 C 10,6 C 8,3 C 90 % 1 lf 1015,3 hPa 0,0 l/m 0 min 0 min 79 W/m 46,0 km/h (6 Bft) 97,87 %
27.01.2016 11:42 10,4 C 10,6 C 8,3 C 90 % 0 lf 1015,3 hPa 0,0 l/m 0 min 0 min 102 W/m 31,4 km/h (5 Bft) 95,74 %
27.01.2016 11:44 10,4 C 10,6 C 8,9 C 90 % 2 lf 1015,3 hPa 0,0 l/m 0 min 2 min 111 W/m 35,6 km/h (5 Bft) 97,87 %
27.01.2016 11:46 10,4 C 11,1 C 8,9 C 89 % 0 lf 1015,2 hPa 0,0 l/m 0 min 2 min 95 W/m 41,8 km/h (6 Bft) 92,31 %
27.01.2016 11:48 10,5 C 11,1 C 8,9 C 89 % 0 lf 1015,2 hPa 0,0 l/m 0 min 0 min 68 W/m 27,2 km/h (4 Bft) 97,37 %
27.01.2016 11:50 10,6 C 11,1 C 8,9 C 89 % 0 lf 1015,2 hPa 0,0 l/m 0 min 2 min 59 W/m 39,7 km/h (6 Bft) 96,00 %
27.01.2016 11:52 10,6 C 11,1 C 8,9 C 89 % 0 lf 1015,3 hPa 0,0 l/m 0 min 0 min 63 W/m 39,7 km/h (6 Bft) 95,74 %
27.01.2016 11:54 10,7 C 11,1 C 8,9 C 88 % 0 lf 1015,2 hPa 0,0 l/m 0 min 0 min 62 W/m 31,4 km/h (5 Bft) 97,87 %
27.01.2016 11:56 10,7 C 11,1 C 8,9 C 88 % 0 lf 1015,2 hPa 0,0 l/m 0 min 0 min 55 W/m 46,0 km/h (6 Bft) 97,87 %
27.01.2016 11:58 10,7 C 11,1 C 8,9 C 88 % 0 lf 1015,2 hPa 0,0 l/m 0 min 0 min 57 W/m 41,8 km/h (6 Bft) 93,02 %
27.01.2016 12:00 10,8 C 11,7 C 8,9 C 88 % 0 lf 1015,3 hPa 0,0 l/m 0 min 0 min 59 W/m 54,4 km/h (7 Bft) 98,00 %
27.01.2016 12:02 10,8 C 11,7 C 8,9 C 87 % 0 lf 1015,3 hPa 0,0 l/m 0 min 0 min 64 W/m 25,1 km/h (4 Bft) 97,92 %
27.01.2016 12:04 10,8 C 11,7 C 9,4 C 87 % 0 lf 1015,1 hPa 0,0 l/m 0 min 0 min 73 W/m 43,9 km/h (6 Bft) 97,92 %
27.01.2016 12:06 10,9 C 11,7 C 8,9 C 87 % 0 lf 1015,4 hPa 0,0 l/m 0 min 0 min 69 W/m 39,7 km/h (6 Bft) 93,75 %
27.01.2016 12:08 10,9 C 11,7 C 9,4 C 87 % 0 lf 1015,2 hPa 0,0 l/m 0 min 0 min 74 W/m 48,1 km/h (6 Bft) 97,14 %
27.01.2016 12:10 11,0 C 11,7 C 9,4 C 86 % 0 lf 1015,1 hPa 0,0 l/m 0 min 0 min 78 W/m 39,7 km/h (6 Bft) 94,44 %
27.01.2016 12:12 11,0 C 11,7 C 9,4 C 86 % 0 lf 1015,1 hPa 0,0 l/m 0 min 0 min 93 W/m 39,7 km/h (6 Bft) 97,87 %
27.01.2016 12:14 11,1 C 11,7 C 9,4 C 86 % 0 lf 1015,0 hPa 0,0 l/m 0 min 0 min 80 W/m 39,7 km/h (6 Bft) 93,62 %
27.01.2016 12:16 11,1 C 11,7 C 9,4 C 86 % 0 lf 1015,0 hPa 0,0 l/m 0 min 0 min 74 W/m 37,7 km/h (5 Bft) 93,62 %
27.01.2016 12:18 11,1 C 11,7 C 10,0 C 86 % 0 lf 1014,9 hPa 0,0 l/m 0 min 0 min 109 W/m 39,7 km/h (6 Bft) 96,00 %
27.01.2016 12:20 11,1 C 11,7 C 10,0 C 86 % 0 lf 1015,0 hPa 0,0 l/m 0 min 0 min 96 W/m 41,8 km/h (6 Bft) 95,74 %
27.01.2016 12:22 11,2 C 11,7 C 10,0 C 86 % 0 lf 1015,0 hPa 0,0 l/m 0 min 0 min 87 W/m 39,7 km/h (6 Bft) 89,13 %
27.01.2016 12:24 11,2 C 11,7 C 10,0 C 85 % 0 lf 1014,9 hPa 0,0 l/m 0 min 0 min 67 W/m 31,4 km/h (5 Bft) 93,62 %
27.01.2016 12:26 11,2 C 11,7 C 10,0 C 85 % 0 lf 1014,8 hPa 0,0 l/m 0 min 0 min 70 W/m 37,7 km/h (5 Bft) 95,83 %
27.01.2016 12:28 11,2 C 11,7 C 10,0 C 85 % 0 lf 1014,8 hPa 0,0 l/m 0 min 0 min 81 W/m 35,6 km/h (5 Bft) 97,87 %
27.01.2016 12:30 11,2 C 11,7 C 10,0 C 85 % 0 lf 1014,7 hPa 0,0 l/m 0 min 0 min 64 W/m 37,7 km/h (5 Bft) 97,14 %
27.01.2016 12:32 11,2 C 11,7 C 10,0 C 85 % 0 lf 1014,8 hPa 0,0 l/m 0 min 0 min 68 W/m 37,7 km/h (5 Bft) 93,62 %
27.01.2016 12:34 11,2 C 11,7 C 10,0 C 85 % 0 lf 1014,7 hPa 0,0 l/m 0 min 0 min 65 W/m 41,8 km/h (6 Bft) 97,87 %
27.01.2016 12:36 11,3 C 11,7 C 10,0 C 85 % 0 lf 1014,7 hPa 0,0 l/m 0 min 0 min 80 W/m 35,6 km/h (5 Bft) 98,15 %
27.01.2016 12:38 11,3 C 12,2 C 10,0 C 85 % 0 lf 1014,6 hPa 0,0 l/m 0 min 0 min 100 W/m 43,9 km/h (6 Bft) 95,74 %
27.01.2016 12:40 11,3 C 12,2 C 10,0 C 85 % 0 lf 1014,6 hPa 0,0 l/m 0 min 0 min 95 W/m 37,7 km/h (5 Bft) 91,49 %
27.01.2016 12:42 11,3 C 12,2 C 10,0 C 85 % 0 lf 1014,7 hPa 0,0 l/m 0 min 0 min 109 W/m 29,3 km/h (5 Bft) 93,62 %
27.01.2016 12:44 11,4 C 12,2 C 10,0 C 85 % 0 lf 1014,6 hPa 0,0 l/m 0 min 0 min 98 W/m 50,2 km/h (7 Bft) 97,83 %
27.01.2016 12:46 11,4 C 12,2 C 10,0 C 85 % 0 lf 1014,5 hPa 0,0 l/m 0 min 0 min 88 W/m 37,7 km/h (5 Bft) 95,74 %
27.01.2016 12:48 11,4 C 12,2 C 10,0 C 85 % 0 lf 1014,5 hPa 0,0 l/m 0 min 0 min 87 W/m 43,9 km/h (6 Bft) 96,00 %
27.01.2016 12:50 11,4 C 12,2 C 10,0 C 85 % 0 lf 1014,4 hPa 0,0 l/m 0 min 0 min 81 W/m 46,0 km/h (6 Bft) 95,83 %
27.01.2016 12:52 11,4 C 12,2 C 10,0 C 85 % 0 lf 1014,4 hPa 0,0 l/m 0 min 0 min 100 W/m 46,0 km/h (6 Bft) 97,87 %
27.01.2016 12:54 11,4 C 12,2 C 10,6 C 85 % 0 lf 1014,4 hPa 0,0 l/m 0 min 0 min 132 W/m 35,6 km/h (5 Bft) 95,74 %
27.01.2016 12:56 11,5 C 12,2 C 10,6 C 85 % 0 lf 1014,3 hPa 0,0 l/m 0 min 0 min 138 W/m 39,7 km/h (6 Bft) 91,30 %
27.01.2016 12:58 11,5 C 12,2 C 10,6 C 85 % 0 lf 1014,4 hPa 0,0 l/m 0 min 0 min 147 W/m 41,8 km/h (6 Bft) 94,29 %
27.01.2016 13:00 11,5 C 12,8 C 10,6 C 84 % 0 lf 1014,3 hPa 0,0 l/m 0 min 0 min 139 W/m 31,4 km/h (5 Bft) 94,55 %
27.01.2016 13:02 11,6 C 12,2 C 10,6 C 84 % 0 lf 1014,1 hPa 0,0 l/m 0 min 0 min 111 W/m 52,3 km/h (7 Bft) 98,00 %
27.01.2016 13:04 11,6 C 12,2 C 10,6 C 84 % 0 lf 1014,4 hPa 0,0 l/m 0 min 0 min 76 W/m 33,5 km/h (5 Bft) 97,87 %
27.01.2016 13:06 11,6 C 12,2 C 10,0 C 84 % 0 lf 1014,3 hPa 0,0 l/m 0 min 0 min 58 W/m 37,7 km/h (5 Bft) 93,88 %
27.01.2016 13:08 11,6 C 12,2 C 10,0 C 84 % 0 lf 1014,3 hPa 0,0 l/m 0 min 0 min 53 W/m 29,3 km/h (5 Bft) 95,74 %
27.01.2016 13:10 11,6 C 12,2 C 10,0 C 84 % 0 lf 1014,3 hPa 0,0 l/m 0 min 0 min 59 W/m 39,7 km/h (6 Bft) 94,44 %
27.01.2016 13:12 11,6 C 12,2 C 10,0 C 84 % 0 lf 1014,4 hPa 0,0 l/m 0 min 0 min 67 W/m 41,8 km/h (6 Bft) 100,00 %
27.01.2016 13:14 11,6 C 12,2 C 10,6 C 84 % 0 lf 1014,3 hPa 0,0 l/m 0 min 0 min 92 W/m 35,6 km/h (5 Bft) 91,49 %
27.01.2016 13:16 11,6 C 12,2 C 10,6 C 84 % 0 lf 1014,3 hPa 0,0 l/m 0 min 0 min 93 W/m 50,2 km/h (7 Bft) 100,00 %
27.01.2016 13:18 11,6 C 12,2 C 10,6 C 84 % 0 lf 1014,3 hPa 0,0 l/m 0 min 0 min 101 W/m 35,6 km/h (5 Bft) 97,83 %
27.01.2016 13:20 11,7 C 12,2 C 10,6 C 84 % 0 lf 1014,4 hPa 0,0 l/m 0 min 0 min 103 W/m 35,6 km/h (5 Bft) 100,00 %
27.01.2016 13:22 11,7 C 12,2 C 10,6 C 84 % 0 lf 1014,4 hPa 0,0 l/m 0 min 0 min 98 W/m 41,8 km/h (6 Bft) 100,00 %
27.01.2016 13:24 11,7 C 12,2 C 10,6 C 84 % 0 lf 1014,3 hPa 0,0 l/m 0 min 0 min 112 W/m 43,9 km/h (6 Bft) 97,87 %
27.01.2016 13:26 11,7 C 12,2 C 10,6 C 84 % 0 lf 1014,2 hPa 0,0 l/m 0 min 0 min 130 W/m 37,7 km/h (5 Bft) 100,00 %
27.01.2016 13:28 11,7 C 12,2 C 10,6 C 84 % 0 lf 1014,2 hPa 0,0 l/m 0 min 0 min 108 W/m 37,7 km/h (5 Bft) 100,00 %
27.01.2016 13:30 11,7 C 12,2 C 10,6 C 84 % 0 lf 1014,2 hPa 0,0 l/m 0 min 0 min 103 W/m 33,5 km/h (5 Bft) 100,00 %
27.01.2016 13:32 11,7 C 12,2 C 10,6 C 84 % 0 lf 1014,1 hPa 0,0 l/m 0 min 0 min 91 W/m 25,1 km/h (4 Bft) 98,15 %
27.01.2016 13:34 11,8 C 12,2 C 10,6 C 84 % 0 lf 1014,3 hPa 0,0 l/m 0 min 0 min 92 W/m 29,3 km/h (5 Bft) 100,00 %
27.01.2016 13:36 11,8 C 12,2 C 10,6 C 84 % 0 lf 1014,4 hPa 0,0 l/m 0 min 0 min 72 W/m 35,6 km/h (5 Bft) 98,00 %
27.01.2016 13:38 11,8 C 12,2 C 10,6 C 83 % 0 lf 1014,3 hPa 0,0 l/m 0 min 0 min 65 W/m 35,6 km/h (5 Bft) 97,87 %
27.01.2016 13:40 11,8 C 12,2 C 10,6 C 83 % 0 lf 1014,3 hPa 0,0 l/m 0 min 0 min 63 W/m 33,5 km/h (5 Bft) 100,00 %
27.01.2016 13:42 11,8 C 12,2 C 10,6 C 83 % 0 lf 1014,1 hPa 0,0 l/m 0 min 0 min 64 W/m 39,7 km/h (6 Bft) 100,00 %
27.01.2016 13:44 11,8 C 12,2 C 10,6 C 83 % 0 lf 1014,0 hPa 0,0 l/m 0 min 0 min 66 W/m 33,5 km/h (5 Bft) 100,00 %
27.01.2016 13:46 11,8 C 12,2 C 10,6 C 83 % 0 lf 1014,0 hPa 0,0 l/m 0 min 0 min 63 W/m 35,6 km/h (5 Bft) 100,00 %
27.01.2016 13:48 11,8 C 12,2 C 10,6 C 83 % 0 lf 1014,1 hPa 0,0 l/m 0 min 0 min 56 W/m 43,9 km/h (6 Bft) 100,00 %
27.01.2016 13:50 11,8 C 12,2 C 10,6 C 83 % 0 lf 1014,0 hPa 0,0 l/m 0 min 0 min 56 W/m 39,7 km/h (6 Bft) 97,87 %
27.01.2016 13:52 11,8 C 12,2 C 10,6 C 83 % 0 lf 1013,9 hPa 0,0 l/m 0 min 0 min 61 W/m 54,4 km/h (7 Bft) 100,00 %
27.01.2016 13:54 11,7 C 12,2 C 10,6 C 83 % 0 lf 1013,9 hPa 0,0 l/m 0 min 0 min 65 W/m 43,9 km/h (6 Bft) 100,00 %
27.01.2016 13:56 11,7 C 12,2 C 10,6 C 83 % 0 lf 1013,8 hPa 0,0 l/m 0 min 0 min 61 W/m 43,9 km/h (6 Bft) 97,87 %
27.01.2016 13:58 11,8 C 12,2 C 10,6 C 83 % 0 lf 1013,8 hPa 0,0 l/m 0 min 0 min 54 W/m 25,1 km/h (4 Bft) 100,00 %
27.01.2016 14:00 11,7 C 12,2 C 10,6 C 83 % 0 lf 1013,8 hPa 0,0 l/m 0 min 0 min 58 W/m 31,4 km/h (5 Bft) 100,00 %
27.01.2016 14:02 11,8 C 12,2 C 10,6 C 83 % 0 lf 1013,6 hPa 0,0 l/m 0 min 0 min 72 W/m 39,7 km/h (6 Bft) 100,00 %
27.01.2016 14:04 11,7 C 12,2 C 10,6 C 83 % 0 lf 1013,6 hPa 0,0 l/m 0 min 0 min 85 W/m 39,7 km/h (6 Bft) 100,00 %
27.01.2016 14:06 11,7 C 12,2 C 10,6 C 83 % 0 lf 1013,5 hPa 0,0 l/m 0 min 0 min 80 W/m 52,3 km/h (7 Bft) 93,62 %
27.01.2016 14:08 11,7 C 12,2 C 10,6 C 83 % 0 lf 1013,5 hPa 0,0 l/m 0 min 0 min 83 W/m 33,5 km/h (5 Bft) 98,15 %
27.01.2016 14:10 11,7 C 12,2 C 10,6 C 83 % 0 lf 1013,6 hPa 0,0 l/m 0 min 0 min 77 W/m 37,7 km/h (5 Bft) 100,00 %
27.01.2016 14:12 11,8 C 12,2 C 10,6 C 83 % 0 lf 1013,4 hPa 0,0 l/m 0 min 0 min 81 W/m 37,7 km/h (5 Bft) 97,22 %
27.01.2016 14:14 11,8 C 12,2 C 10,6 C 83 % 0 lf 1013,5 hPa 0,0 l/m 0 min 0 min 75 W/m 23,0 km/h (4 Bft) 97,87 %
27.01.2016 14:16 11,8 C 12,2 C 10,6 C 83 % 0 lf 1013,3 hPa 0,0 l/m 0 min 0 min 89 W/m 39,7 km/h (6 Bft) 95,74 %
27.01.2016 14:18 11,8 C 12,2 C 10,6 C 83 % 0 lf 1013,3 hPa 0,0 l/m 0 min 0 min 91 W/m 27,2 km/h (4 Bft) 98,15 %
27.01.2016 14:20 11,8 C 12,2 C 10,6 C 83 % 0 lf 1013,3 hPa 0,0 l/m 0 min 0 min 103 W/m 31,4 km/h (5 Bft) 98,00 %
27.01.2016 14:22 11,8 C 12,2 C 10,6 C 83 % 0 lf 1013,2 hPa 0,0 l/m 0 min 0 min 113 W/m 29,3 km/h (5 Bft) 95,74 %
27.01.2016 14:24 11,8 C 12,2 C 10,6 C 83 % 0 lf 1013,2 hPa 0,0 l/m 0 min 0 min 111 W/m 37,7 km/h (5 Bft) 97,87 %
27.01.2016 14:26 11,8 C 12,2 C 10,6 C 83 % 0 lf 1013,1 hPa 0,0 l/m 0 min 0 min 111 W/m 27,2 km/h (4 Bft) 95,74 %
27.01.2016 14:28 11,8 C 12,2 C 10,6 C 83 % 0 lf 1013,2 hPa 0,0 l/m 0 min 0 min 121 W/m 46,0 km/h (6 Bft) 97,22 %
27.01.2016 14:30 11,8 C 12,8 C 10,6 C 83 % 0 lf 1013,0 hPa 0,0 l/m 0 min 0 min 118 W/m 33,5 km/h (5 Bft) 97,87 %
27.01.2016 14:32 11,9 C 12,8 C 10,6 C 83 % 0 lf 1013,1 hPa 0,0 l/m 0 min 0 min 98 W/m 46,0 km/h (6 Bft) 95,65 %
27.01.2016 14:34 11,9 C 12,8 C 10,6 C 83 % 0 lf 1013,0 hPa 0,0 l/m 0 min 0 min 95 W/m 39,7 km/h (6 Bft) 93,62 %
27.01.2016 14:36 11,9 C 12,2 C 10,6 C 82 % 0 lf 1013,0 hPa 0,0 l/m 0 min 0 min 87 W/m 41,8 km/h (6 Bft) 96,36 %
27.01.2016 14:38 11,9 C 12,8 C 10,6 C 82 % 0 lf 1013,0 hPa 0,0 l/m 0 min 0 min 77 W/m 20,9 km/h (4 Bft) 91,49 %
27.01.2016 14:40 11,9 C 12,2 C 10,6 C 82 % 0 lf 1013,0 hPa 0,0 l/m 0 min 0 min 73 W/m 43,9 km/h (6 Bft) 89,13 %
27.01.2016 14:42 11,9 C 12,2 C 10,6 C 82 % 0 lf 1013,0 hPa 0,0 l/m 0 min 0 min 74 W/m 29,3 km/h (5 Bft) 90,00 %
27.01.2016 14:44 11,9 C 12,2 C 10,6 C 82 % 0 lf 1013,3 hPa 0,0 l/m 0 min 0 min 66 W/m 35,6 km/h (5 Bft) 89,36 %
27.01.2016 14:46 11,9 C 12,2 C 10,6 C 82 % 0 lf 1013,1 hPa 0,0 l/m 0 min 0 min 62 W/m 37,7 km/h (5 Bft) 94,44 %
27.01.2016 14:48 11,9 C 12,2 C 10,6 C 82 % 0 lf 1013,3 hPa 0,0 l/m 0 min 0 min 67 W/m 43,9 km/h (6 Bft) 91,49 %
27.01.2016 14:50 11,9 C 12,2 C 10,6 C 82 % 0 lf 1013,3 hPa 0,0 l/m 0 min 0 min 67 W/m 35,6 km/h (5 Bft) 94,55 %
27.01.2016 14:52 11,9 C 12,2 C 10,6 C 82 % 0 lf 1013,3 hPa 0,0 l/m 0 min 0 min 60 W/m 29,3 km/h (5 Bft) 93,48 %
27.01.2016 14:54 11,9 C 12,2 C 10,6 C 82 % 0 lf 1013,2 hPa 0,0 l/m 0 min 0 min 62 W/m 23,0 km/h (4 Bft) 91,49 %
27.01.2016 14:56 11,9 C 12,2 C 10,6 C 82 % 0 lf 1013,2 hPa 0,0 l/m 0 min 0 min 61 W/m 37,7 km/h (5 Bft) 91,49 %
27.01.2016 14:58 11,9 C 12,2 C 10,6 C 82 % 0 lf 1013,2 hPa 0,0 l/m 0 min 0 min 62 W/m 31,4 km/h (5 Bft) 91,49 %
27.01.2016 15:00 11,9 C 12,2 C 10,6 C 82 % 0 lf 1013,2 hPa 0,0 l/m 0 min 0 min 58 W/m 33,5 km/h (5 Bft) 93,62 %
27.01.2016 15:02 11,9 C 12,2 C 10,6 C 82 % 0 lf 1013,2 hPa 0,0 l/m 0 min 0 min 49 W/m 35,6 km/h (5 Bft) 89,58 %
27.01.2016 15:04 11,9 C 12,2 C 10,6 C 82 % 0 lf 1013,1 hPa 0,0 l/m 0 min 0 min 49 W/m 41,8 km/h (6 Bft) 93,48 %
27.01.2016 15:06 11,9 C 12,2 C 10,6 C 82 % 0 lf 1013,2 hPa 0,0 l/m 0 min 0 min 49 W/m 41,8 km/h (6 Bft) 90,00 %
27.01.2016 15:08 11,9 C 12,2 C 10,6 C 82 % 0 lf 1013,1 hPa 0,0 l/m 0 min 0 min 55 W/m 29,3 km/h (5 Bft) 89,47 %
27.01.2016 15:10 11,9 C 12,2 C 10,6 C 82 % 0 lf 1013,1 hPa 0,0 l/m 0 min 0 min 52 W/m 27,2 km/h (4 Bft) 91,49 %
27.01.2016 15:12 11,9 C 12,2 C 10,6 C 82 % 0 lf 1013,1 hPa 0,0 l/m 0 min 0 min 54 W/m 29,3 km/h (5 Bft) 91,49 %
27.01.2016 15:14 11,9 C 12,2 C 10,6 C 82 % 0 lf 1013,0 hPa 0,0 l/m 0 min 0 min 50 W/m 46,0 km/h (6 Bft) 92,73 %
27.01.2016 15:16 11,9 C 12,2 C 10,6 C 82 % 0 lf 1013,1 hPa 0,0 l/m 0 min 0 min 49 W/m 35,6 km/h (5 Bft) 97,44 %
27.01.2016 15:18 11,9 C 12,2 C 10,6 C 82 % 0 lf 1013,1 hPa 0,0 l/m 0 min 0 min 48 W/m 39,7 km/h (6 Bft) 93,48 %
27.01.2016 15:20 11,9 C 12,2 C 10,6 C 82 % 0 lf 1013,1 hPa 0,0 l/m 0 min 0 min 48 W/m 31,4 km/h (5 Bft) 94,64 %
27.01.2016 15:22 11,9 C 12,2 C 10,6 C 82 % 0 lf 1013,1 hPa 0,0 l/m 0 min 0 min 44 W/m 33,5 km/h (5 Bft) 92,11 %
27.01.2016 15:24 11,9 C 12,2 C 10,6 C 82 % 0 lf 1013,1 hPa 0,0 l/m 0 min 0 min 45 W/m 43,9 km/h (6 Bft) 97,87 %
27.01.2016 15:26 11,9 C 12,2 C 10,6 C 82 % 0 lf 1013,1 hPa 0,0 l/m 0 min 0 min 40 W/m 37,7 km/h (5 Bft) 97,87 %
27.01.2016 15:28 11,9 C 12,2 C 10,6 C 82 % 0 lf 1013,1 hPa 0,0 l/m 0 min 0 min 38 W/m 43,9 km/h (6 Bft) 95,74 %
27.01.2016 15:30 11,9 C 12,2 C 10,6 C 82 % 0 lf 1013,0 hPa 0,0 l/m 0 min 0 min 40 W/m 31,4 km/h (5 Bft) 93,88 %
27.01.2016 15:32 11,9 C 12,2 C 10,6 C 82 % 0 lf 1013,0 hPa 0,0 l/m 0 min 0 min 46 W/m 29,3 km/h (5 Bft) 91,49 %
27.01.2016 15:34 11,9 C 12,2 C 10,6 C 82 % 0 lf 1012,9 hPa 0,0 l/m 0 min 0 min 44 W/m 25,1 km/h (4 Bft) 95,74 %
27.01.2016 15:36 11,9 C 12,2 C 10,6 C 83 % 0 lf 1012,9 hPa 0,0 l/m 0 min 0 min 41 W/m 37,7 km/h (5 Bft) 93,18 %
27.01.2016 15:38 11,9 C 12,2 C 10,6 C 83 % 0 lf 1012,8 hPa 0,0 l/m 0 min 0 min 37 W/m 35,6 km/h (5 Bft) 96,00 %
27.01.2016 15:40 11,9 C 12,2 C 10,6 C 83 % 0 lf 1012,9 hPa 0,0 l/m 0 min 0 min 37 W/m 29,3 km/h (5 Bft) 95,65 %
27.01.2016 15:42 11,9 C 12,2 C 10,6 C 83 % 0 lf 1012,9 hPa 0,0 l/m 0 min 0 min 39 W/m 31,4 km/h (5 Bft) 93,18 %
27.01.2016 15:44 11,9 C 12,2 C 10,6 C 83 % 0 lf 1012,7 hPa 0,0 l/m 0 min 0 min 37 W/m 35,6 km/h (5 Bft) 97,87 %
27.01.2016 15:46 11,9 C 12,2 C 10,6 C 83 % 0 lf 1012,8 hPa 0,0 l/m 0 min 0 min 35 W/m 37,7 km/h (5 Bft) 95,74 %
27.01.2016 15:48 11,9 C 12,2 C 10,6 C 83 % 0 lf 1012,9 hPa 0,0 l/m 0 min 0 min 35 W/m 60,7 km/h (7 Bft) 94,00 %
27.01.2016 15:50 11,9 C 12,2 C 10,6 C 83 % 0 lf 1012,9 hPa 0,0 l/m 0 min 0 min 37 W/m 27,2 km/h (4 Bft) 95,74 %
27.01.2016 15:52 11,9 C 12,2 C 10,6 C 83 % 0 lf 1012,8 hPa 0,0 l/m 0 min 0 min 40 W/m 37,7 km/h (5 Bft) 95,65 %
27.01.2016 15:54 11,9 C 12,2 C 10,6 C 83 % 0 lf 1012,9 hPa 0,0 l/m 0 min 0 min 39 W/m 31,4 km/h (5 Bft) 97,73 %
27.01.2016 15:56 11,9 C 12,2 C 10,6 C 83 % 0 lf 1012,8 hPa 0,0 l/m 0 min 0 min 36 W/m 37,7 km/h (5 Bft) 100,00 %
27.01.2016 15:58 11,9 C 12,2 C 10,6 C 83 % 0 lf 1012,8 hPa 0,0 l/m 0 min 0 min 34 W/m 33,5 km/h (5 Bft) 97,87 %
27.01.2016 16:00 11,9 C 12,2 C 10,6 C 83 % 0 lf 1012,9 hPa 0,0 l/m 0 min 0 min 32 W/m 37,7 km/h (5 Bft) 98,00 %
27.01.2016 16:02 11,9 C 12,2 C 10,6 C 83 % 0 lf 1012,9 hPa 0,0 l/m 0 min 0 min 32 W/m 41,8 km/h (6 Bft) 97,37 %
27.01.2016 16:04 11,9 C 12,2 C 10,6 C 83 % 0 lf 1012,9 hPa 0,0 l/m 0 min 0 min 31 W/m 46,0 km/h (6 Bft) 97,96 %
27.01.2016 16:06 11,9 C 12,2 C 10,6 C 83 % 0 lf 1013,0 hPa 0,0 l/m 0 min 0 min 30 W/m 37,7 km/h (5 Bft) 95,74 %
27.01.2016 16:08 11,9 C 12,2 C 10,6 C 83 % 0 lf 1013,0 hPa 0,0 l/m 0 min 0 min 30 W/m 48,1 km/h (6 Bft) 98,21 %
27.01.2016 16:10 11,9 C 12,2 C 10,6 C 83 % 0 lf 1013,1 hPa 0,0 l/m 0 min 0 min 31 W/m 43,9 km/h (6 Bft) 94,74 %
27.01.2016 16:12 11,9 C 12,2 C 10,6 C 83 % 0 lf 1012,9 hPa 0,0 l/m 0 min 0 min 34 W/m 35,6 km/h (5 Bft) 98,00 %
27.01.2016 16:14 11,8 C 12,2 C 10,6 C 83 % 0 lf 1013,0 hPa 0,0 l/m 0 min 0 min 38 W/m 35,6 km/h (5 Bft) 100,00 %
27.01.2016 16:16 11,8 C 12,2 C 10,6 C 83 % 0 lf 1012,8 hPa 0,0 l/m 0 min 0 min 42 W/m 37,7 km/h (5 Bft) 95,35 %
27.01.2016 16:18 11,8 C 12,2 C 10,6 C 83 % 0 lf 1012,7 hPa 0,0 l/m 0 min 0 min 41 W/m 35,6 km/h (5 Bft) 96,00 %
27.01.2016 16:20 11,8 C 12,2 C 10,6 C 83 % 0 lf 1012,7 hPa 0,0 l/m 0 min 0 min 40 W/m 31,4 km/h (5 Bft) 100,00 %
27.01.2016 16:22 11,8 C 12,2 C 10,6 C 83 % 0 lf 1012,7 hPa 0,0 l/m 0 min 0 min 36 W/m 29,3 km/h (5 Bft) 97,87 %
27.01.2016 16:24 11,8 C 12,2 C 10,6 C 83 % 0 lf 1012,6 hPa 0,0 l/m 0 min 0 min 36 W/m 33,5 km/h (5 Bft) 97,87 %
27.01.2016 16:26 11,8 C 12,2 C 10,6 C 83 % 0 lf 1012,6 hPa 0,0 l/m 0 min 0 min 34 W/m 46,0 km/h (6 Bft) 97,83 %
27.01.2016 16:28 11,8 C 12,2 C 10,6 C 83 % 0 lf 1012,6 hPa 0,0 l/m 0 min 0 min 34 W/m 25,1 km/h (4 Bft) 100,00 %
27.01.2016 16:30 11,8 C 12,2 C 10,0 C 83 % 0 lf 1012,5 hPa 0,0 l/m 0 min 0 min 36 W/m 39,7 km/h (6 Bft) 100,00 %
27.01.2016 16:32 11,8 C 12,2 C 10,0 C 83 % 0 lf 1012,5 hPa 0,0 l/m 0 min 0 min 38 W/m 41,8 km/h (6 Bft) 100,00 %
27.01.2016 16:34 11,8 C 12,2 C 10,0 C 83 % 0 lf 1012,4 hPa 0,0 l/m 0 min 0 min 37 W/m 33,5 km/h (5 Bft) 97,37 %
27.01.2016 16:36 11,8 C 12,2 C 10,0 C 83 % 0 lf 1012,4 hPa 0,0 l/m 0 min 0 min 35 W/m 33,5 km/h (5 Bft) 96,00 %
27.01.2016 16:38 11,8 C 12,2 C 10,0 C 83 % 0 lf 1012,4 hPa 0,0 l/m 0 min 0 min 33 W/m 35,6 km/h (5 Bft) 93,62 %
27.01.2016 16:40 11,7 C 12,2 C 10,0 C 83 % 0 lf 1012,4 hPa 0,0 l/m 0 min 0 min 32 W/m 35,6 km/h (5 Bft) 97,83 %
27.01.2016 16:42 11,7 C 11,7 C 10,0 C 83 % 0 lf 1012,4 hPa 0,0 l/m 2 min 0 min 31 W/m 39,7 km/h (6 Bft) 94,34 %
27.01.2016 16:44 11,7 C 12,2 C 10,0 C 83 % 0 lf 1012,4 hPa 0,0 l/m 0 min 0 min 26 W/m 46,0 km/h (6 Bft) 94,74 %
27.01.2016 16:46 11,7 C 11,7 C 10,0 C 83 % 0 lf 1012,6 hPa 0,0 l/m 0 min 0 min 17 W/m 29,3 km/h (5 Bft) 98,00 %
27.01.2016 16:48 11,7 C 11,7 C 10,0 C 83 % 0 lf 1012,6 hPa 0,0 l/m 0 min 0 min 12 W/m 41,8 km/h (6 Bft) 97,87 %
27.01.2016 16:50 11,7 C 12,2 C 10,0 C 83 % 0 lf 1012,7 hPa 0,0 l/m 0 min 0 min 12 W/m 35,6 km/h (5 Bft) 93,02 %
27.01.2016 16:52 11,7 C 11,7 C 10,0 C 83 % 0 lf 1012,7 hPa 0,0 l/m 0 min 0 min 11 W/m 31,4 km/h (5 Bft) 98,00 %
27.01.2016 16:54 11,7 C 12,2 C 10,0 C 83 % 0 lf 1012,8 hPa 0,0 l/m 0 min 0 min 9 W/m 48,1 km/h (6 Bft) 95,74 %
27.01.2016 16:56 11,7 C 12,2 C 10,0 C 83 % 0 lf 1012,6 hPa 0,0 l/m 0 min 0 min 9 W/m 35,6 km/h (5 Bft) 97,87 %
27.01.2016 16:58 11,7 C 11,7 C 10,0 C 83 % 0 lf 1012,6 hPa 0,0 l/m 0 min 0 min 9 W/m 29,3 km/h (5 Bft) 97,73 %
27.01.2016 17:00 11,7 C 11,7 C 10,0 C 83 % 0 lf 1012,6 hPa 0,0 l/m 0 min 0 min 9 W/m 48,1 km/h (6 Bft) 100,00 %
27.01.2016 17:02 11,7 C 11,7 C 10,0 C 83 % 0 lf 1012,5 hPa 0,0 l/m 0 min 0 min 9 W/m 37,7 km/h (5 Bft) 95,92 %
27.01.2016 17:04 11,7 C 11,7 C 10,0 C 83 % 0 lf 1012,4 hPa 0,0 l/m 0 min 0 min 7 W/m 35,6 km/h (5 Bft) 100,00 %
27.01.2016 17:06 11,7 C 11,7 C 10,0 C 83 % 0 lf 1012,4 hPa 0,0 l/m 0 min 0 min 6 W/m 33,5 km/h (5 Bft) 90,00 %
27.01.2016 17:08 11,7 C 11,7 C 10,0 C 83 % 0 lf 1012,3 hPa 0,0 l/m 0 min 0 min 5 W/m 29,3 km/h (5 Bft) 100,00 %
27.01.2016 17:10 11,7 C 11,7 C 10,0 C 83 % 0 lf 1012,4 hPa 0,0 l/m 0 min 0 min 5 W/m 37,7 km/h (5 Bft) 100,00 %
27.01.2016 17:12 11,7 C 11,7 C 10,0 C 83 % 0 lf 1012,4 hPa 0,0 l/m 0 min 0 min 5 W/m 27,2 km/h (4 Bft) 97,87 %
27.01.2016 17:14 11,7 C 11,7 C 10,0 C 83 % 0 lf 1012,5 hPa 0,0 l/m 0 min 0 min 2 W/m 39,7 km/h (6 Bft) 94,55 %
27.01.2016 17:16 11,7 C 11,7 C 10,0 C 83 % 0 lf 1012,4 hPa 0,0 l/m 0 min 0 min 0 W/m 29,3 km/h (5 Bft) 100,00 %
27.01.2016 17:18 11,7 C 11,7 C 10,0 C 83 % 0 lf 1012,5 hPa 0,0 l/m 0 min 0 min 0 W/m 37,7 km/h (5 Bft) 100,00 %
27.01.2016 17:20 11,7 C 11,7 C 10,0 C 83 % 0 lf 1012,5 hPa 0,0 l/m 0 min 0 min 0 W/m 27,2 km/h (4 Bft) 100,00 %
27.01.2016 17:22 11,7 C 11,7 C 10,0 C 83 % 0 lf 1012,4 hPa 0,0 l/m 0 min 0 min 0 W/m 37,7 km/h (5 Bft) 95,74 %
27.01.2016 17:24 11,7 C 11,7 C 10,0 C 83 % 0 lf 1012,4 hPa 0,0 l/m 0 min 0 min 0 W/m 23,0 km/h (4 Bft) 100,00 %
27.01.2016 17:26 11,7 C 11,7 C 10,0 C 83 % 0 lf 1012,5 hPa 0,0 l/m 0 min 0 min 0 W/m 20,9 km/h (4 Bft) 96,36 %
27.01.2016 17:28 11,7 C 11,7 C 10,0 C 83 % 0 lf 1012,4 hPa 0,0 l/m 0 min 0 min 0 W/m 33,5 km/h (5 Bft) 96,00 %
27.01.2016 17:30 11,6 C 11,7 C 10,0 C 83 % 0 lf 1012,4 hPa 0,0 l/m 0 min 0 min 0 W/m 25,1 km/h (4 Bft) 94,74 %
27.01.2016 17:32 11,6 C 11,7 C 10,0 C 83 % 0 lf 1012,4 hPa 0,0 l/m 0 min 0 min 0 W/m 20,9 km/h (4 Bft) 98,11 %
27.01.2016 17:34 11,6 C 11,7 C 10,0 C 83 % 0 lf 1012,5 hPa 0,0 l/m 0 min 0 min 0 W/m 41,8 km/h (6 Bft) 95,74 %
27.01.2016 17:36 11,6 C 11,7 C 10,0 C 83 % 0 lf 1012,5 hPa 0,0 l/m 0 min 0 min 0 W/m 35,6 km/h (5 Bft) 95,65 %
27.01.2016 17:38 11,6 C 11,7 C 10,0 C 83 % 0 lf 1012,3 hPa 0,0 l/m 0 min 0 min 0 W/m 33,5 km/h (5 Bft) 95,74 %
27.01.2016 17:40 11,6 C 11,7 C 10,0 C 83 % 0 lf 1012,4 hPa 0,0 l/m 0 min 0 min 0 W/m 29,3 km/h (5 Bft) 95,74 %
27.01.2016 17:42 11,6 C 11,7 C 10,0 C 83 % 0 lf 1012,3 hPa 0,0 l/m 0 min 0 min 0 W/m 27,2 km/h (4 Bft) 95,74 %
27.01.2016 17:44 11,6 C 11,7 C 10,0 C 83 % 0 lf 1012,4 hPa 0,0 l/m 0 min 0 min 0 W/m 27,2 km/h (4 Bft) 97,87 %
27.01.2016 17:46 11,6 C 11,7 C 10,0 C 83 % 0 lf 1012,4 hPa 0,0 l/m 0 min 0 min 0 W/m 35,6 km/h (5 Bft) 91,49 %
27.01.2016 17:48 11,6 C 11,7 C 10,0 C 83 % 0 lf 1012,5 hPa 0,0 l/m 0 min 0 min 0 W/m 33,5 km/h (5 Bft) 93,48 %
27.01.2016 17:50 11,6 C 11,7 C 10,0 C 83 % 0 lf 1012,6 hPa 0,0 l/m 0 min 0 min 0 W/m 25,1 km/h (4 Bft) 97,87 %
27.01.2016 17:52 11,6 C 11,7 C 10,0 C 83 % 0 lf 1012,6 hPa 0,0 l/m 0 min 0 min 0 W/m 33,5 km/h (5 Bft) 95,74 %
27.01.2016 17:54 11,6 C 11,7 C 10,0 C 83 % 0 lf 1012,6 hPa 0,0 l/m 0 min 0 min 0 W/m 37,7 km/h (5 Bft) 97,87 %
27.01.2016 17:56 11,6 C 11,7 C 10,0 C 83 % 0 lf 1012,6 hPa 0,0 l/m 0 min 0 min 0 W/m 37,7 km/h (5 Bft) 95,74 %
27.01.2016 17:58 11,6 C 11,7 C 10,0 C 83 % 0 lf 1012,6 hPa 0,0 l/m 0 min 0 min 0 W/m 39,7 km/h (6 Bft) 93,62 %
27.01.2016 18:00 11,6 C 11,7 C 10,0 C 83 % 0 lf 1012,5 hPa 0,0 l/m 0 min 0 min 0 W/m 27,2 km/h (4 Bft) 95,65 %
27.01.2016 18:02 11,6 C 11,7 C 10,0 C 83 % 0 lf 1012,4 hPa 0,0 l/m 0 min 0 min 0 W/m 31,4 km/h (5 Bft) 93,75 %
27.01.2016 18:04 11,6 C 11,7 C 10,0 C 83 % 0 lf 1012,3 hPa 0,0 l/m 0 min 0 min 0 W/m 33,5 km/h (5 Bft) 93,62 %
27.01.2016 18:06 11,6 C 11,7 C 10,0 C 83 % 0 lf 1012,3 hPa 0,0 l/m 0 min 0 min 0 W/m 41,8 km/h (6 Bft) 88,00 %
27.01.2016 18:08 11,6 C 11,7 C 10,0 C 83 % 0 lf 1012,3 hPa 0,0 l/m 0 min 0 min 0 W/m 41,8 km/h (6 Bft) 91,49 %
27.01.2016 18:10 11,6 C 11,7 C 10,0 C 83 % 0 lf 1012,3 hPa 0,0 l/m 0 min 0 min 0 W/m 31,4 km/h (5 Bft) 93,48 %
27.01.2016 18:12 11,6 C 11,7 C 10,0 C 83 % 0 lf 1012,4 hPa 0,0 l/m 0 min 0 min 0 W/m 35,6 km/h (5 Bft) 94,44 %
27.01.2016 18:14 11,6 C 11,7 C 10,0 C 83 % 0 lf 1012,3 hPa 0,0 l/m 0 min 0 min 0 W/m 33,5 km/h (5 Bft) 93,75 %
27.01.2016 18:16 11,6 C 11,7 C 10,0 C 83 % 0 lf 1012,4 hPa 0,0 l/m 0 min 0 min 0 W/m 37,7 km/h (5 Bft) 93,62 %
27.01.2016 18:18 11,6 C 11,7 C 10,0 C 83 % 0 lf 1012,4 hPa 0,0 l/m 0 min 0 min 0 W/m 31,4 km/h (5 Bft) 95,74 %
27.01.2016 18:20 11,6 C 11,7 C 10,0 C 83 % 0 lf 1012,4 hPa 0,0 l/m 0 min 0 min 0 W/m 27,2 km/h (4 Bft) 95,74 %
27.01.2016 18:22 11,6 C 11,7 C 10,0 C 83 % 0 lf 1012,3 hPa 0,0 l/m 0 min 0 min 0 W/m 31,4 km/h (5 Bft) 89,36 %
27.01.2016 18:24 11,6 C 11,7 C 10,0 C 83 % 0 lf 1012,4 hPa 0,0 l/m 0 min 0 min 0 W/m 29,3 km/h (5 Bft) 93,48 %
27.01.2016 18:26 11,6 C 11,7 C 10,0 C 83 % 0 lf 1012,4 hPa 0,0 l/m 0 min 0 min 0 W/m 35,6 km/h (5 Bft) 95,74 %
27.01.2016 18:28 11,6 C 11,7 C 10,0 C 83 % 0 lf 1012,5 hPa 0,0 l/m 0 min 0 min 0 W/m 29,3 km/h (5 Bft) 93,62 %
27.01.2016 18:30 11,6 C 11,7 C 10,0 C 83 % 0 lf 1012,5 hPa 0,0 l/m 0 min 0 min 0 W/m 48,1 km/h (6 Bft) 91,49 %
27.01.2016 18:32 11,6 C 11,7 C 10,0 C 83 % 0 lf 1012,5 hPa 0,0 l/m 0 min 0 min 0 W/m 37,7 km/h (5 Bft) 93,62 %
27.01.2016 18:34 11,6 C 11,7 C 10,0 C 82 % 0 lf 1012,4 hPa 0,0 l/m 0 min 0 min 0 W/m 39,7 km/h (6 Bft) 93,62 %
27.01.2016 18:36 11,6 C 11,7 C 10,0 C 82 % 0 lf 1012,3 hPa 0,0 l/m 0 min 0 min 0 W/m 31,4 km/h (5 Bft) 91,84 %
27.01.2016 18:38 11,6 C 11,7 C 10,0 C 82 % 0 lf 1012,3 hPa 0,0 l/m 0 min 0 min 0 W/m 23,0 km/h (4 Bft) 91,49 %
27.01.2016 18:40 11,6 C 11,7 C 10,0 C 82 % 0 lf 1012,4 hPa 0,0 l/m 0 min 0 min 0 W/m 37,7 km/h (5 Bft) 93,62 %
27.01.2016 18:42 11,6 C 11,7 C 10,0 C 82 % 0 lf 1012,3 hPa 0,0 l/m 0 min 0 min 0 W/m 25,1 km/h (4 Bft) 93,62 %
27.01.2016 18:44 11,6 C 11,7 C 10,0 C 82 % 0 lf 1012,3 hPa 0,0 l/m 0 min 0 min 0 W/m 31,4 km/h (5 Bft) 93,62 %
27.01.2016 18:46 11,6 C 11,7 C 10,0 C 82 % 0 lf 1012,4 hPa 0,0 l/m 0 min 0 min 0 W/m 31,4 km/h (5 Bft) 91,49 %
27.01.2016 18:48 11,6 C 11,7 C 10,0 C 82 % 0 lf 1012,3 hPa 0,0 l/m 0 min 0 min 0 W/m 23,0 km/h (4 Bft) 95,65 %
27.01.2016 18:50 11,6 C 11,7 C 10,0 C 82 % 0 lf 1012,3 hPa 0,0 l/m 0 min 0 min 0 W/m 37,7 km/h (5 Bft) 95,74 %
27.01.2016 18:52 11,7 C 11,7 C 10,0 C 82 % 0 lf 1012,3 hPa 0,0 l/m 0 min 0 min 0 W/m 43,9 km/h (6 Bft) 93,62 %
27.01.2016 18:54 11,7 C 11,7 C 10,0 C 82 % 0 lf 1012,3 hPa 0,0 l/m 0 min 0 min 0 W/m 29,3 km/h (5 Bft) 95,74 %
27.01.2016 18:56 11,6 C 11,7 C 10,0 C 82 % 0 lf 1012,2 hPa 0,0 l/m 0 min 0 min 0 W/m 39,7 km/h (6 Bft) 93,62 %
27.01.2016 18:58 11,7 C 11,7 C 10,0 C 82 % 0 lf 1012,2 hPa 0,0 l/m 0 min 0 min 0 W/m 43,9 km/h (6 Bft) 91,30 %
27.01.2016 19:00 11,7 C 11,7 C 10,0 C 82 % 0 lf 1012,3 hPa 0,0 l/m 0 min 0 min 0 W/m 37,7 km/h (5 Bft) 93,62 %
27.01.2016 19:02 11,7 C 11,7 C 10,0 C 82 % 0 lf 1012,4 hPa 0,0 l/m 0 min 0 min 0 W/m 48,1 km/h (6 Bft) 97,87 %
27.01.2016 19:04 11,7 C 11,7 C 10,0 C 83 % 0 lf 1012,4 hPa 0,0 l/m 0 min 0 min 0 W/m 58,6 km/h (7 Bft) 100,00 %
27.01.2016 19:06 11,7 C 11,7 C 10,0 C 83 % 0 lf 1012,3 hPa 0,0 l/m 0 min 0 min 0 W/m 39,7 km/h (6 Bft) 100,00 %
27.01.2016 19:08 11,7 C 11,7 C 10,0 C 83 % 0 lf 1012,3 hPa 0,0 l/m 0 min 0 min 0 W/m 31,4 km/h (5 Bft) 97,87 %
27.01.2016 19:10 11,7 C 11,7 C 10,0 C 83 % 3 lf 1012,3 hPa 0,0 l/m 0 min 0 min 0 W/m 35,6 km/h (5 Bft) 97,83 %
27.01.2016 19:12 11,7 C 11,7 C 10,0 C 83 % 14 lf 1012,2 hPa 0,0 l/m 0 min 2 min 0 W/m 56,5 km/h (7 Bft) 95,74 %
27.01.2016 19:14 11,7 C 11,1 C 9,4 C 84 % 15 lf 1012,4 hPa 0,0 l/m 0 min 2 min 0 W/m 52,3 km/h (7 Bft) 93,62 %
27.01.2016 19:16 11,6 C 10,6 C 9,4 C 84 % 15 lf 1012,3 hPa 0,0 l/m 0 min 2 min 0 W/m 37,7 km/h (5 Bft) 100,00 %
27.01.2016 19:18 11,6 C 10,6 C 8,9 C 85 % 15 lf 1012,3 hPa 0,0 l/m 0 min 2 min 0 W/m 23,0 km/h (4 Bft) 100,00 %
27.01.2016 19:20 11,5 C 10,6 C 8,9 C 85 % 15 lf 1012,3 hPa 0,0 l/m 0 min 2 min 0 W/m 37,7 km/h (5 Bft) 100,00 %
27.01.2016 19:22 11,4 C 10,0 C 8,9 C 86 % 15 lf 1012,3 hPa 0,0 l/m 0 min 2 min 0 W/m 37,7 km/h (5 Bft) 97,87 %
27.01.2016 19:24 11,3 C 10,0 C 8,9 C 86 % 15 lf 1012,3 hPa 0,0 l/m 0 min 2 min 0 W/m 33,5 km/h (5 Bft) 100,00 %
27.01.2016 19:26 11,3 C 10,0 C 8,9 C 87 % 15 lf 1012,3 hPa 0,0 l/m 0 min 2 min 0 W/m 23,0 km/h (4 Bft) 97,87 %
27.01.2016 19:28 11,2 C 10,0 C 8,9 C 87 % 15 lf 1012,3 hPa 0,0 l/m 0 min 2 min 0 W/m 29,3 km/h (5 Bft) 97,87 %
27.01.2016 19:30 11,2 C 10,0 C 8,9 C 87 % 15 lf 1012,3 hPa 0,0 l/m 0 min 2 min 0 W/m 23,0 km/h (4 Bft) 95,74 %
27.01.2016 19:32 11,1 C 10,6 C 8,9 C 88 % 15 lf 1012,2 hPa 0,0 l/m 0 min 2 min 0 W/m 29,3 km/h (5 Bft) 97,83 %
27.01.2016 19:34 11,1 C 10,6 C 8,9 C 88 % 15 lf 1012,3 hPa 0,0 l/m 0 min 2 min 0 W/m 37,7 km/h (5 Bft) 100,00 %
27.01.2016 19:36 11,0 C 10,6 C 8,9 C 88 % 15 lf 1012,2 hPa 0,0 l/m 0 min 2 min 0 W/m 39,7 km/h (6 Bft) 100,00 %
27.01.2016 19:38 11,0 C 10,6 C 8,9 C 88 % 14 lf 1012,1 hPa 0,0 l/m 0 min 2 min 0 W/m 35,6 km/h (5 Bft) 97,87 %
27.01.2016 19:40 10,9 C 11,1 C 8,9 C 88 % 12 lf 1012,3 hPa 0,0 l/m 0 min 2 min 0 W/m 39,7 km/h (6 Bft) 100,00 %
27.01.2016 19:42 10,9 C 11,1 C 8,9 C 88 % 9 lf 1012,3 hPa 0,0 l/m 0 min 2 min 0 W/m 27,2 km/h (4 Bft) 100,00 %
27.01.2016 19:44 10,9 C 11,1 C 8,9 C 88 % 8 lf 1012,1 hPa 0,0 l/m 0 min 2 min 0 W/m 33,5 km/h (5 Bft) 100,00 %
27.01.2016 19:46 10,9 C 11,1 C 9,4 C 88 % 8 lf 1012,1 hPa 0,0 l/m 0 min 2 min 0 W/m 43,9 km/h (6 Bft) 97,83 %
27.01.2016 19:48 10,9 C 11,1 C 9,4 C 88 % 4 lf 1012,1 hPa 0,0 l/m 0 min 2 min 0 W/m 31,4 km/h (5 Bft) 97,87 %
27.01.2016 19:50 10,9 C 11,1 C 9,4 C 88 % 7 lf 1012,1 hPa 0,0 l/m 0 min 2 min 0 W/m 31,4 km/h (5 Bft) 97,87 %
27.01.2016 19:52 10,9 C 11,1 C 9,4 C 88 % 5 lf 1012,1 hPa 0,0 l/m 0 min 2 min 0 W/m 33,5 km/h (5 Bft) 100,00 %
27.01.2016 19:54 10,9 C 11,1 C 9,4 C 88 % 4 lf 1012,2 hPa 0,0 l/m 0 min 2 min 0 W/m 39,7 km/h (6 Bft) 100,00 %
27.01.2016 19:56 10,9 C 11,1 C 9,4 C 88 % 3 lf 1012,3 hPa 0,0 l/m 0 min 2 min 0 W/m 39,7 km/h (6 Bft) 100,00 %
27.01.2016 19:58 10,9 C 10,6 C 8,9 C 88 % 12 lf 1012,2 hPa 0,0 l/m 0 min 2 min 0 W/m 37,7 km/h (5 Bft) 100,00 %
27.01.2016 20:00 10,9 C 10,6 C 8,9 C 88 % 13 lf 1012,2 hPa 0,0 l/m 0 min 2 min 0 W/m 39,7 km/h (6 Bft) 97,87 %
27.01.2016 20:02 10,9 C 10,0 C 8,9 C 88 % 15 lf 1012,1 hPa 0,0 l/m 0 min 2 min 0 W/m 41,8 km/h (6 Bft) 100,00 %
27.01.2016 20:04 10,9 C 10,0 C 8,9 C 88 % 15 lf 1012,2 hPa 0,0 l/m 0 min 2 min 0 W/m 41,8 km/h (6 Bft) 100,00 %
27.01.2016 20:06 10,9 C 10,0 C 8,3 C 88 % 15 lf 1012,2 hPa 0,2 l/m 0 min 2 min 0 W/m 29,3 km/h (5 Bft) 97,96 %
27.01.2016 20:08 10,9 C 9,4 C 8,3 C 88 % 15 lf 1012,2 hPa 0,0 l/m 0 min 2 min 0 W/m 31,4 km/h (5 Bft) 97,87 %
27.01.2016 20:10 10,9 C 10,0 C 8,3 C 88 % 15 lf 1012,1 hPa 0,0 l/m 0 min 2 min 0 W/m 31,4 km/h (5 Bft) 95,65 %
27.01.2016 20:12 10,9 C 9,4 C 8,3 C 88 % 15 lf 1012,2 hPa 0,0 l/m 0 min 2 min 0 W/m 37,7 km/h (5 Bft) 97,87 %
27.01.2016 20:14 10,8 C 9,4 C 8,3 C 89 % 15 lf 1012,1 hPa 0,0 l/m 0 min 2 min 0 W/m 39,7 km/h (6 Bft) 100,00 %
27.01.2016 20:16 10,8 C 9,4 C 8,3 C 89 % 15 lf 1012,1 hPa 0,0 l/m 0 min 2 min 0 W/m 46,0 km/h (6 Bft) 95,74 %
27.01.2016 20:18 10,8 C 9,4 C 8,3 C 89 % 15 lf 1012,1 hPa 0,0 l/m 0 min 2 min 0 W/m 27,2 km/h (4 Bft) 97,87 %
27.01.2016 20:20 10,8 C 9,4 C 8,3 C 89 % 15 lf 1012,2 hPa 0,0 l/m 0 min 2 min 0 W/m 29,3 km/h (5 Bft) 93,48 %
27.01.2016 20:22 10,7 C 9,4 C 8,3 C 89 % 15 lf 1012,1 hPa 0,2 l/m 0 min 2 min 0 W/m 33,5 km/h (5 Bft) 95,74 %
27.01.2016 20:24 10,7 C 9,4 C 8,3 C 89 % 15 lf 1012,2 hPa 0,0 l/m 0 min 2 min 0 W/m 39,7 km/h (6 Bft) 95,83 %
27.01.2016 20:26 10,7 C 9,4 C 8,3 C 89 % 15 lf 1012,1 hPa 0,0 l/m 0 min 2 min 0 W/m 25,1 km/h (4 Bft) 93,62 %
27.01.2016 20:28 10,7 C 9,4 C 8,3 C 90 % 15 lf 1012,1 hPa 0,0 l/m 0 min 2 min 0 W/m 33,5 km/h (5 Bft) 93,62 %
27.01.2016 20:30 10,6 C 9,4 C 8,3 C 90 % 15 lf 1012,1 hPa 0,0 l/m 0 min 2 min 0 W/m 31,4 km/h (5 Bft) 93,62 %
27.01.2016 20:32 10,6 C 9,4 C 8,3 C 90 % 15 lf 1012,0 hPa 0,0 l/m 0 min 2 min 0 W/m 33,5 km/h (5 Bft) 91,30 %
27.01.2016 20:34 10,6 C 9,4 C 8,3 C 90 % 15 lf 1012,1 hPa 0,0 l/m 0 min 2 min 0 W/m 37,7 km/h (5 Bft) 93,62 %
27.01.2016 20:36 10,6 C 9,4 C 8,3 C 90 % 15 lf 1012,1 hPa 0,0 l/m 0 min 2 min 0 W/m 37,7 km/h (5 Bft) 93,88 %
27.01.2016 20:38 10,6 C 9,4 C 8,3 C 90 % 15 lf 1012,0 hPa 0,0 l/m 0 min 2 min 0 W/m 33,5 km/h (5 Bft) 93,62 %
27.01.2016 20:40 10,6 C 9,4 C 8,3 C 90 % 15 lf 1012,1 hPa 0,0 l/m 0 min 2 min 0 W/m 46,0 km/h (6 Bft) 93,62 %
27.01.2016 20:42 10,5 C 9,4 C 8,3 C 90 % 15 lf 1012,1 hPa 0,0 l/m 0 min 2 min 0 W/m 35,6 km/h (5 Bft) 95,74 %
27.01.2016 20:44 10,5 C 9,4 C 8,3 C 90 % 15 lf 1012,0 hPa 0,0 l/m 0 min 2 min 0 W/m 35,6 km/h (5 Bft) 93,48 %
27.01.2016 20:46 10,5 C 9,4 C 8,3 C 91 % 15 lf 1012,1 hPa 0,0 l/m 0 min 2 min 0 W/m 37,7 km/h (5 Bft) 91,49 %
27.01.2016 20:48 10,5 C 9,4 C 8,3 C 91 % 15 lf 1012,0 hPa 0,0 l/m 0 min 2 min 0 W/m 35,6 km/h (5 Bft) 91,49 %
27.01.2016 20:50 10,5 C 9,4 C 8,3 C 91 % 15 lf 1012,0 hPa 0,0 l/m 0 min 2 min 0 W/m 25,1 km/h (4 Bft) 93,62 %
27.01.2016 20:52 10,4 C 9,4 C 8,3 C 91 % 15 lf 1012,1 hPa 0,0 l/m 0 min 2 min 0 W/m 37,7 km/h (5 Bft) 93,62 %
27.01.2016 20:54 10,4 C 9,4 C 8,3 C 91 % 15 lf 1012,0 hPa 0,0 l/m 0 min 2 min 0 W/m 23,0 km/h (4 Bft) 91,49 %
27.01.2016 20:56 10,4 C 9,4 C 8,3 C 91 % 15 lf 1012,1 hPa 0,0 l/m 0 min 2 min 0 W/m 37,7 km/h (5 Bft) 93,48 %
27.01.2016 20:58 10,4 C 9,4 C 8,3 C 91 % 15 lf 1012,1 hPa 0,2 l/m 0 min 2 min 0 W/m 35,6 km/h (5 Bft) 93,62 %
27.01.2016 21:00 10,4 C 9,4 C 8,3 C 91 % 15 lf 1012,0 hPa 0,0 l/m 0 min 2 min 0 W/m 29,3 km/h (5 Bft) 95,74 %
27.01.2016 21:02 10,4 C 9,4 C 8,3 C 91 % 15 lf 1012,0 hPa 0,0 l/m 0 min 2 min 0 W/m 46,0 km/h (6 Bft) 93,62 %
27.01.2016 21:04 10,4 C 9,4 C 8,3 C 91 % 15 lf 1012,0 hPa 0,0 l/m 0 min 2 min 0 W/m 31,4 km/h (5 Bft) 93,62 %
27.01.2016 21:06 10,4 C 9,4 C 8,3 C 91 % 15 lf 1012,0 hPa 0,0 l/m 0 min 2 min 0 W/m 37,7 km/h (5 Bft) 94,29 %
27.01.2016 21:08 10,4 C 9,4 C 8,3 C 91 % 15 lf 1011,9 hPa 0,0 l/m 0 min 2 min 0 W/m 43,9 km/h (6 Bft) 93,62 %
27.01.2016 21:10 10,3 C 9,4 C 8,3 C 91 % 15 lf 1012,0 hPa 0,0 l/m 0 min 2 min 0 W/m 29,3 km/h (5 Bft) 95,65 %
27.01.2016 21:12 10,3 C 9,4 C 8,3 C 92 % 15 lf 1011,9 hPa 0,0 l/m 0 min 2 min 0 W/m 27,2 km/h (4 Bft) 95,74 %
27.01.2016 21:14 10,3 C 9,4 C 8,3 C 92 % 15 lf 1011,9 hPa 0,0 l/m 0 min 2 min 0 W/m 31,4 km/h (5 Bft) 100,00 %
27.01.2016 21:16 10,3 C 9,4 C 8,3 C 92 % 15 lf 1011,9 hPa 0,0 l/m 0 min 2 min 0 W/m 33,5 km/h (5 Bft) 97,87 %
27.01.2016 21:18 10,3 C 9,4 C 8,3 C 92 % 15 lf 1011,9 hPa 0,0 l/m 0 min 2 min 0 W/m 25,1 km/h (4 Bft) 95,74 %
27.01.2016 21:20 10,3 C 9,4 C 8,3 C 92 % 15 lf 1012,0 hPa 0,0 l/m 0 min 2 min 0 W/m 29,3 km/h (5 Bft) 97,87 %
27.01.2016 21:22 10,2 C 9,4 C 8,3 C 92 % 15 lf 1011,9 hPa 0,0 l/m 0 min 2 min 0 W/m 41,8 km/h (6 Bft) 93,48 %
27.01.2016 21:24 10,2 C 9,4 C 8,3 C 92 % 15 lf 1011,9 hPa 0,0 l/m 0 min 2 min 0 W/m 39,7 km/h (6 Bft) 95,74 %
27.01.2016 21:26 10,2 C 9,4 C 8,3 C 92 % 15 lf 1012,0 hPa 0,0 l/m 0 min 2 min 0 W/m 46,0 km/h (6 Bft) 93,62 %
27.01.2016 21:28 10,2 C 9,4 C 8,3 C 92 % 15 lf 1011,9 hPa 0,0 l/m 0 min 2 min 0 W/m 37,7 km/h (5 Bft) 95,74 %
27.01.2016 21:30 10,2 C 9,4 C 8,3 C 92 % 15 lf 1011,9 hPa 0,0 l/m 0 min 2 min 0 W/m 35,6 km/h (5 Bft) 97,87 %
27.01.2016 21:32 10,2 C 9,4 C 8,3 C 92 % 15 lf 1011,7 hPa 0,0 l/m 0 min 2 min 0 W/m 39,7 km/h (6 Bft) 97,87 %
27.01.2016 21:34 10,2 C 9,4 C 8,3 C 92 % 15 lf 1011,9 hPa 0,0 l/m 0 min 2 min 0 W/m 39,7 km/h (6 Bft) 97,83 %
27.01.2016 21:36 10,2 C 9,4 C 8,3 C 92 % 14 lf 1012,0 hPa 0,0 l/m 0 min 2 min 0 W/m 27,2 km/h (4 Bft) 100,00 %
27.01.2016 21:38 10,2 C 9,4 C 8,3 C 92 % 13 lf 1012,0 hPa 0,0 l/m 0 min 2 min 0 W/m 41,8 km/h (6 Bft) 100,00 %
27.01.2016 21:40 10,2 C 9,4 C 8,3 C 92 % 13 lf 1011,9 hPa 0,0 l/m 0 min 2 min 0 W/m 46,0 km/h (6 Bft) 100,00 %
27.01.2016 21:42 10,2 C 9,4 C 8,3 C 92 % 9 lf 1012,0 hPa 0,0 l/m 0 min 2 min 0 W/m 48,1 km/h (6 Bft) 100,00 %
27.01.2016 21:44 10,3 C 9,4 C 8,3 C 92 % 8 lf 1012,0 hPa 0,0 l/m 0 min 2 min 0 W/m 39,7 km/h (6 Bft) 97,83 %
27.01.2016 21:46 10,3 C 9,4 C 8,3 C 92 % 6 lf 1011,9 hPa 0,0 l/m 0 min 2 min 0 W/m 35,6 km/h (5 Bft) 100,00 %
27.01.2016 21:48 10,3 C 9,4 C 8,3 C 92 % 7 lf 1012,0 hPa 0,0 l/m 0 min 2 min 0 W/m 31,4 km/h (5 Bft) 100,00 %
27.01.2016 21:50 10,3 C 9,4 C 8,3 C 92 % 11 lf 1012,1 hPa 0,0 l/m 0 min 2 min 0 W/m 35,6 km/h (5 Bft) 97,87 %
27.01.2016 21:52 10,3 C 9,4 C 7,8 C 92 % 15 lf 1011,9 hPa 0,0 l/m 0 min 2 min 0 W/m 41,8 km/h (6 Bft) 97,87 %
27.01.2016 21:54 10,3 C 9,4 C 7,8 C 92 % 15 lf 1011,8 hPa 0,0 l/m 0 min 2 min 0 W/m 35,6 km/h (5 Bft) 100,00 %
27.01.2016 21:56 10,3 C 9,4 C 7,8 C 92 % 15 lf 1012,0 hPa 0,0 l/m 0 min 2 min 0 W/m 37,7 km/h (5 Bft) 100,00 %
27.01.2016 21:58 10,2 C 9,4 C 7,8 C 92 % 15 lf 1011,9 hPa 0,0 l/m 0 min 2 min 0 W/m 39,7 km/h (6 Bft) 100,00 %
27.01.2016 22:00 10,2 C 9,4 C 7,8 C 92 % 15 lf 1011,9 hPa 0,0 l/m 0 min 2 min 0 W/m 35,6 km/h (5 Bft) 97,87 %
27.01.2016 22:02 10,2 C 9,4 C 7,8 C 92 % 15 lf 1012,0 hPa 0,0 l/m 0 min 2 min 0 W/m 41,8 km/h (6 Bft) 91,67 %
27.01.2016 22:04 10,2 C 9,4 C 7,8 C 92 % 15 lf 1011,8 hPa 0,0 l/m 0 min 2 min 0 W/m 33,5 km/h (5 Bft) 97,87 %
27.01.2016 22:06 10,2 C 9,4 C 7,8 C 92 % 15 lf 1011,9 hPa 0,0 l/m 0 min 2 min 0 W/m 29,3 km/h (5 Bft) 95,74 %
27.01.2016 22:08 10,2 C 9,4 C 7,8 C 92 % 15 lf 1011,9 hPa 0,0 l/m 0 min 2 min 0 W/m 27,2 km/h (4 Bft) 95,74 %
27.01.2016 22:10 10,2 C 9,4 C 7,8 C 92 % 15 lf 1012,0 hPa 0,0 l/m 0 min 2 min 0 W/m 39,7 km/h (6 Bft) 97,87 %
27.01.2016 22:12 10,2 C 9,4 C 7,8 C 92 % 15 lf 1012,1 hPa 0,0 l/m 0 min 2 min 0 W/m 27,2 km/h (4 Bft) 95,74 %
27.01.2016 22:14 10,2 C 9,4 C 7,8 C 92 % 15 lf 1012,2 hPa 0,0 l/m 0 min 2 min 0 W/m 41,8 km/h (6 Bft) 95,74 %
27.01.2016 22:16 10,2 C 9,4 C 7,8 C 92 % 15 lf 1012,2 hPa 0,2 l/m 0 min 2 min 0 W/m 41,8 km/h (6 Bft) 91,49 %
27.01.2016 22:18 10,1 C 9,4 C 7,8 C 92 % 15 lf 1012,3 hPa 0,0 l/m 0 min 2 min 0 W/m 48,1 km/h (6 Bft) 95,65 %
27.01.2016 22:20 10,1 C 9,4 C 7,8 C 92 % 15 lf 1012,3 hPa 0,0 l/m 0 min 2 min 0 W/m 33,5 km/h (5 Bft) 91,49 %
27.01.2016 22:22 10,1 C 9,4 C 7,8 C 92 % 15 lf 1012,3 hPa 0,0 l/m 0 min 2 min 0 W/m 25,1 km/h (4 Bft) 95,74 %
27.01.2016 22:24 10,1 C 9,4 C 7,8 C 92 % 15 lf 1012,4 hPa 0,0 l/m 0 min 2 min 0 W/m 37,7 km/h (5 Bft) 93,62 %
27.01.2016 22:26 10,1 C 9,4 C 7,8 C 92 % 15 lf 1012,3 hPa 0,2 l/m 0 min 2 min 0 W/m 33,5 km/h (5 Bft) 93,62 %
27.01.2016 22:28 10,1 C 9,4 C 7,8 C 92 % 15 lf 1012,2 hPa 0,0 l/m 0 min 2 min 0 W/m 27,2 km/h (4 Bft) 91,30 %
27.01.2016 22:30 10,0 C 9,4 C 7,8 C 92 % 15 lf 1012,2 hPa 0,0 l/m 0 min 2 min 0 W/m 35,6 km/h (5 Bft) 95,74 %
27.01.2016 22:32 10,0 C 9,4 C 7,8 C 93 % 15 lf 1012,2 hPa 0,0 l/m 0 min 2 min 0 W/m 31,4 km/h (5 Bft) 95,74 %
27.01.2016 22:34 10,0 C 8,9 C 7,8 C 93 % 15 lf 1012,2 hPa 0,0 l/m 0 min 2 min 0 W/m 25,1 km/h (4 Bft) 93,62 %
27.01.2016 22:36 9,9 C 8,9 C 7,8 C 93 % 15 lf 1012,2 hPa 0,0 l/m 0 min 2 min 0 W/m 31,4 km/h (5 Bft) 97,14 %
27.01.2016 22:38 9,9 C 8,9 C 7,8 C 93 % 15 lf 1012,2 hPa 0,0 l/m 0 min 2 min 0 W/m 31,4 km/h (5 Bft) 91,49 %
27.01.2016 22:40 9,9 C 8,9 C 7,8 C 93 % 15 lf 1012,2 hPa 0,0 l/m 0 min 2 min 0 W/m 25,1 km/h (4 Bft) 95,74 %
27.01.2016 22:42 9,9 C 8,9 C 7,8 C 93 % 15 lf 1012,2 hPa 0,0 l/m 0 min 2 min 0 W/m 20,9 km/h (4 Bft) 91,49 %
27.01.2016 22:44 9,9 C 8,9 C 7,8 C 93 % 15 lf 1012,1 hPa 0,0 l/m 0 min 2 min 0 W/m 33,5 km/h (5 Bft) 97,83 %
27.01.2016 22:46 9,9 C 8,9 C 7,8 C 93 % 15 lf 1012,2 hPa 0,2 l/m 0 min 2 min 0 W/m 25,1 km/h (4 Bft) 93,62 %
27.01.2016 22:48 9,9 C 8,9 C 7,8 C 93 % 15 lf 1012,1 hPa 0,0 l/m 0 min 2 min 0 W/m 31,4 km/h (5 Bft) 97,87 %
27.01.2016 22:50 9,8 C 8,9 C 7,8 C 93 % 15 lf 1012,1 hPa 0,0 l/m 0 min 2 min 0 W/m 27,2 km/h (4 Bft) 95,74 %
27.01.2016 22:52 9,8 C 8,9 C 7,8 C 93 % 15 lf 1012,2 hPa 0,0 l/m 0 min 2 min 0 W/m 37,7 km/h (5 Bft) 95,74 %
27.01.2016 22:54 9,8 C 8,9 C 7,8 C 93 % 15 lf 1012,2 hPa 0,0 l/m 0 min 2 min 0 W/m 35,6 km/h (5 Bft) 95,74 %
27.01.2016 22:56 9,8 C 8,9 C 7,8 C 93 % 15 lf 1012,2 hPa 0,0 l/m 0 min 2 min 0 W/m 23,0 km/h (4 Bft) 95,65 %
27.01.2016 22:58 9,8 C 8,9 C 7,8 C 94 % 15 lf 1012,2 hPa 0,0 l/m 0 min 2 min 0 W/m 39,7 km/h (6 Bft) 95,74 %
27.01.2016 23:00 9,8 C 9,4 C 7,8 C 94 % 15 lf 1012,2 hPa 0,0 l/m 0 min 2 min 0 W/m 39,7 km/h (6 Bft) 95,74 %
27.01.2016 23:02 9,8 C 9,4 C 7,8 C 94 % 15 lf 1012,2 hPa 0,0 l/m 0 min 2 min 0 W/m 27,2 km/h (4 Bft) 97,87 %
27.01.2016 23:04 9,8 C 9,4 C 7,8 C 94 % 15 lf 1012,2 hPa 0,0 l/m 0 min 2 min 0 W/m 31,4 km/h (5 Bft) 97,87 %
27.01.2016 23:06 9,8 C 9,4 C 7,8 C 94 % 15 lf 1012,3 hPa 0,0 l/m 0 min 2 min 0 W/m 31,4 km/h (5 Bft) 98,25 %
27.01.2016 23:08 9,8 C 9,4 C 7,8 C 94 % 15 lf 1012,2 hPa 0,0 l/m 0 min 2 min 0 W/m 27,2 km/h (4 Bft) 100,00 %
27.01.2016 23:10 9,8 C 9,4 C 7,8 C 94 % 15 lf 1012,2 hPa 0,0 l/m 0 min 2 min 0 W/m 27,2 km/h (4 Bft) 95,74 %
27.01.2016 23:12 9,8 C 9,4 C 7,8 C 94 % 15 lf 1012,2 hPa 0,0 l/m 0 min 2 min 0 W/m 37,7 km/h (5 Bft) 95,74 %
27.01.2016 23:14 9,7 C 9,4 C 7,8 C 94 % 15 lf 1012,2 hPa 0,0 l/m 0 min 2 min 0 W/m 18,8 km/h (3 Bft) 100,00 %
27.01.2016 23:16 9,7 C 8,9 C 7,8 C 94 % 15 lf 1012,2 hPa 0,0 l/m 0 min 2 min 0 W/m 25,1 km/h (4 Bft) 97,83 %
27.01.2016 23:18 9,7 C 8,9 C 7,8 C 94 % 15 lf 1012,2 hPa 0,0 l/m 0 min 2 min 0 W/m 33,5 km/h (5 Bft) 100,00 %
27.01.2016 23:20 9,7 C 9,4 C 7,8 C 94 % 15 lf 1012,2 hPa 0,0 l/m 0 min 2 min 0 W/m 31,4 km/h (5 Bft) 95,74 %
27.01.2016 23:22 9,7 C 8,9 C 7,8 C 94 % 15 lf 1012,2 hPa 0,0 l/m 0 min 2 min 0 W/m 20,9 km/h (4 Bft) 95,74 %
27.01.2016 23:24 9,7 C 8,9 C 7,8 C 94 % 15 lf 1012,3 hPa 0,0 l/m 0 min 2 min 0 W/m 18,8 km/h (3 Bft) 95,74 %
27.01.2016 23:26 9,7 C 9,4 C 7,8 C 94 % 15 lf 1012,3 hPa 0,0 l/m 0 min 2 min 0 W/m 25,1 km/h (4 Bft) 95,74 %
27.01.2016 23:28 9,7 C 8,9 C 7,8 C 94 % 15 lf 1012,3 hPa 0,0 l/m 0 min 2 min 0 W/m 23,0 km/h (4 Bft) 93,48 %
27.01.2016 23:30 9,7 C 9,4 C 7,8 C 94 % 15 lf 1012,3 hPa 0,0 l/m 0 min 2 min 0 W/m 39,7 km/h (6 Bft) 95,74 %
27.01.2016 23:32 9,7 C 9,4 C 7,8 C 94 % 15 lf 1012,2 hPa 0,0 l/m 0 min 2 min 0 W/m 29,3 km/h (5 Bft) 95,74 %
27.01.2016 23:34 9,7 C 9,4 C 7,8 C 94 % 15 lf 1012,3 hPa 0,0 l/m 0 min 2 min 0 W/m 27,2 km/h (4 Bft) 95,74 %
27.01.2016 23:36 9,7 C 9,4 C 7,8 C 94 % 15 lf 1012,2 hPa 0,0 l/m 0 min 2 min 0 W/m 29,3 km/h (5 Bft) 93,75 %
27.01.2016 23:38 9,7 C 9,4 C 7,8 C 94 % 15 lf 1012,2 hPa 0,0 l/m 0 min 2 min 0 W/m 25,1 km/h (4 Bft) 91,49 %
27.01.2016 23:40 9,7 C 9,4 C 7,8 C 94 % 15 lf 1012,2 hPa 0,0 l/m 0 min 2 min 0 W/m 23,0 km/h (4 Bft) 95,65 %
27.01.2016 23:42 9,7 C 9,4 C 7,8 C 94 % 15 lf 1012,3 hPa 0,0 l/m 0 min 2 min 0 W/m 35,6 km/h (5 Bft) 95,74 %
27.01.2016 23:44 9,7 C 9,4 C 7,8 C 94 % 15 lf 1012,2 hPa 0,2 l/m 0 min 2 min 0 W/m 25,1 km/h (4 Bft) 93,62 %
27.01.2016 23:46 9,7 C 9,4 C 7,8 C 94 % 15 lf 1012,2 hPa 0,0 l/m 0 min 2 min 0 W/m 29,3 km/h (5 Bft) 95,74 %
27.01.2016 23:48 9,7 C 9,4 C 7,8 C 94 % 15 lf 1012,3 hPa 0,0 l/m 0 min 2 min 0 W/m 20,9 km/h (4 Bft) 95,74 %
27.01.2016 23:50 9,7 C 9,4 C 7,8 C 94 % 15 lf 1012,2 hPa 0,0 l/m 0 min 2 min 0 W/m 29,3 km/h (5 Bft) 95,65 %
27.01.2016 23:52 9,7 C 9,4 C 7,8 C 95 % 15 lf 1012,2 hPa 0,0 l/m 0 min 2 min 0 W/m 23,0 km/h (4 Bft) 93,62 %
27.01.2016 23:54 9,7 C 9,4 C 7,8 C 95 % 15 lf 1012,2 hPa 0,0 l/m 0 min 2 min 0 W/m 25,1 km/h (4 Bft) 95,74 %
27.01.2016 23:56 9,7 C 9,4 C 7,8 C 95 % 15 lf 1012,3 hPa 0,0 l/m 0 min 2 min 0 W/m 29,3 km/h (5 Bft) 91,49 %
27.01.2016 23:58 9,7 C 9,4 C 7,8 C 95 % 15 lf 1012,3 hPa 0,0 l/m 0 min 2 min 0 W/m 20,9 km/h (4 Bft) 95,74 %
_ Min-Zeit 00:00 00:00 00:00 14:36 00:46 21:32 - - - - 08:34 00:02
Minimum _ 9,3 C 8,9 C 7,2 C 82 % 0 lf 1011,7 hPa - - - - 14,6 km/h (3 Bft) 10,00 %
_ Max-Zeit 15:16 13:00 12:54 23:52 00:00 00:02 09:56 16:42 00:06 12:58 10:14 00:36
Maximum _ 12,0 C 12,8 C 10,6 C 95 % 15 lf 1017,5 hPa 0,2 l/m 2 min 2 min 147 W/m 62,8 km/h
SW (8 Bft)
100,00 %
Durchschnitt _ 10,7 C 10,7 C 8,9 C 86 % 4 lf 1014,4 hPa #2,0 l/m #2 min. #7:40 h 50 W/m 34,2 km/h (5 Bft) 95,94 %
© 2016 W. Hausmann